M I D A S
Marine Information and Data Acquisition System
Tripno 811 of the Zeeleeuw from 2004-11-23 08:13:38 to 2004-11-23 15:31:57
Back to CruiseResearch ActivitiesStationsMapUnderway DataData graphs

EquipmentUnitsComment
TimeDGPSUTC
LatitudeDGPSDM.mWGS84
LongitudeDGPSDM.mWGS84
TemperatureSBE03/SBE38deg celciusITS90
ConductivitySBE21S/mITS90
SalinitySBE21 Practical Salinity Units
ChlorophylAChelsea fluorimeterg/lCalibrated in Aceton
Missing or incorrect values are displayed as -999
Sea surface data collected by the RV Zeeleeuw from 2004-11-23 06:49:41 to 2004-11-23 15:42:07
                                                                                    Next 1000 lines
Time Latitude Longitude Temperature Conductivity Salinity ChlorophylA
2004-11-23 06:49:51 51°13.616 2°56.064 15.278104 0.070645 0.408 -0.882377
2004-11-23 06:49:56 51°13.616 2°56.064 15.235373 0.070645 0.408 -0.882377
2004-11-23 06:50:00 51°13.616 2°56.064 15.270929 0.070541 0.407393 -0.916087
2004-11-23 06:50:06 51°13.616 2°56.064 15.24804 0.070645 0.408007 -0.882377
2004-11-23 06:50:09 51°13.616 2°56.064 15.248838 0.070541 0.407371 -0.882377
2004-11-23 06:50:16 51°13.616 2°56.064 15.25775 0.070645 0.407993 -0.916087
2004-11-23 06:50:21 51°13.616 2°56.064 15.25775 0.070645 0.407993 -0.916087
2004-11-23 06:50:25 51°13.616 2°56.064 15.258735 0.070541 0.407371 -0.882377
2004-11-23 06:50:30 51°13.616 2°56.063 15.262769 0.070541 0.407364 -0.882377
2004-11-23 06:50:36 51°13.616 2°56.063 15.27121 0.070541 0.407364 -0.882377
2004-11-23 06:50:41 51°13.616 2°56.063 15.283215 0.070541 0.407364 -0.916087
2004-11-23 06:50:46 51°13.616 2°56.063 15.283215 0.070541 0.407364 -0.916087
2004-11-23 06:50:50 51°13.616 2°56.063 15.265442 0.070645 0.407986 -0.916087
2004-11-23 06:50:56 51°13.617 2°56.063 15.276931 0.070541 0.407364 -0.882377
2004-11-23 06:51:01 51°13.617 2°56.063 15.284434 0.070541 0.407364 -0.882377
2004-11-23 06:51:06 51°13.617 2°56.063 15.28645 0.070645 0.407986 -0.882377
2004-11-23 06:51:09 51°13.617 2°56.064 15.2857 0.070541 0.407357 -0.882377
2004-11-23 06:51:16 51°13.617 2°56.064 15.2857 0.070541 0.407357 -0.882377
2004-11-23 06:51:20 51°13.617 2°56.064 15.286543 0.070645 0.407979 -0.916087
2004-11-23 06:51:26 51°13.617 2°56.063 15.290153 0.070541 0.40735 -0.916087
2004-11-23 06:51:31 51°13.617 2°56.063 15.293295 0.070541 0.407357 -0.882377
2004-11-23 06:51:36 51°13.617 2°56.063 15.295545 0.070541 0.407357 -0.882377
2004-11-23 06:51:40 51°13.617 2°56.063 15.295404 0.070541 0.407357 -0.882377
2004-11-23 06:51:46 51°13.617 2°56.063 15.295404 0.070541 0.407357 -0.882377
2004-11-23 06:51:51 51°13.617 2°56.063 15.300092 0.070541 0.407357 -0.882377
2004-11-23 06:51:56 51°13.617 2°56.063 15.299998 0.070541 0.40735 -0.882377
2004-11-23 06:52:01 51°13.617 2°56.063 15.299857 0.070541 0.407357 -0.882377
2004-11-23 06:52:06 51°13.617 2°56.063 15.301358 0.070541 0.407357 -0.882377
2004-11-23 06:52:11 51°13.617 2°56.063 15.301592 0.070541 0.40735 -0.916087
2004-11-23 06:52:16 51°13.617 2°56.063 15.303889 0.070541 0.40735 -0.882377
2004-11-23 06:52:21 51°13.617 2°56.063 15.303889 0.070541 0.40735 -0.882377
2004-11-23 06:52:26 51°13.617 2°56.063 15.305857 0.070541 0.40735 -0.882377
2004-11-23 06:52:31 51°13.617 2°56.063 15.306139 0.070645 0.407971 -0.882377
2004-11-23 06:52:36 51°13.617 2°56.063 15.305389 0.070541 0.407357 -0.916087
2004-11-23 06:52:40 51°13.617 2°56.063 15.307263 0.070541 0.40735 -0.882377
2004-11-23 06:52:46 51°13.618 2°56.063 15.307263 0.070541 0.40735 -0.882377
2004-11-23 06:52:51 51°13.618 2°56.063 15.307498 0.070645 0.407971 -0.882377
2004-11-23 06:52:56 51°13.618 2°56.063 15.309513 0.070541 0.40735 -0.848668
2004-11-23 06:53:01 51°13.618 2°56.063 15.309466 0.070645 0.407964 -0.882377
2004-11-23 06:53:06 51°13.618 2°56.063 15.309748 0.070541 0.407343 -0.882377
2004-11-23 06:53:11 51°13.618 2°56.063 15.309982 0.070645 0.407957 -0.882377
2004-11-23 06:53:16 51°13.618 2°56.063 15.309982 0.070645 0.407957 -0.882377
2004-11-23 06:53:21 51°13.618 2°56.063 15.311575 0.070541 0.407336 -0.882377
2004-11-23 06:53:26 51°13.618 2°56.062 15.312091 0.070541 0.407336 -0.882377
2004-11-23 06:53:31 51°13.618 2°56.062 15.315465 0.070541 0.407336 -0.882377
2004-11-23 06:53:36 51°13.618 2°56.062 15.315606 0.070541 0.407336 -0.916087
2004-11-23 06:53:41 51°13.618 2°56.062 15.316215 0.070541 0.407336 -0.848668
2004-11-23 06:53:46 51°13.618 2°56.062 15.316215 0.070541 0.407336 -0.848668
2004-11-23 06:53:51 51°13.618 2°56.062 15.316075 0.070541 0.407343 -0.916087
2004-11-23 06:53:56 51°13.618 2°56.062 15.315606 0.070645 0.40795 -0.882377
2004-11-23 06:54:01 51°13.618 2°56.062 15.317293 0.070645 0.40795 -0.882377
2004-11-23 06:54:06 51°13.618 2°56.062 15.316731 0.070645 0.40795 -0.882377
2004-11-23 06:54:10 51°13.618 2°56.062 15.316825 0.070645 0.40795 -0.882377
2004-11-23 06:54:16 51°13.618 2°56.062 15.316825 0.070645 0.40795 -0.882377
2004-11-23 06:54:21 51°13.618 2°56.062 15.318184 0.070645 0.40795 -0.882377
2004-11-23 06:54:26 51°13.618 2°56.062 15.322776 0.070645 0.407957 -0.882377
2004-11-23 06:54:30 51°13.617 2°56.062 15.321464 0.070541 0.407329 -0.916087
2004-11-23 06:54:36 51°13.617 2°56.061 15.320574 0.070645 0.40795 -0.882377
2004-11-23 06:54:41 51°13.617 2°56.061 15.323432 0.070645 0.40795 -0.848668
2004-11-23 06:54:46 51°13.617 2°56.061 15.323432 0.070645 0.40795 -0.848668
2004-11-23 06:54:50 51°13.617 2°56.061 15.322073 0.070645 0.407943 -0.882377
2004-11-23 06:54:56 51°13.618 2°56.061 15.323807 0.070645 0.40795 -0.916087
2004-11-23 06:55:01 51°13.618 2°56.061 15.323526 0.070645 0.407943 -0.882377
2004-11-23 06:55:06 51°13.618 2°56.061 15.323948 0.070645 0.40795 -0.916087
2004-11-23 06:55:11 51°13.618 2°56.061 15.325447 0.070645 0.407943 -0.916087
2004-11-23 06:55:16 51°13.618 2°56.061 15.325728 0.070541 0.407322 -0.882377
2004-11-23 06:55:21 51°13.618 2°56.061 15.325728 0.070541 0.407322 -0.882377
2004-11-23 06:55:26 51°13.618 2°56.061 15.325541 0.070645 0.407943 -0.882377
2004-11-23 06:55:31 51°13.618 2°56.061 15.327509 0.070645 0.407943 -0.882377
2004-11-23 06:55:36 51°13.618 2°56.061 15.326572 0.070645 0.407936 -0.916087
2004-11-23 06:55:41 51°13.618 2°56.06 15.328915 0.070645 0.407943 -0.882377
2004-11-23 06:55:46 51°13.618 2°56.06 15.328915 0.070645 0.407943 -0.882377
2004-11-23 06:55:51 51°13.618 2°56.06 15.327556 0.070645 0.407943 -0.882377
2004-11-23 06:55:56 51°13.618 2°56.06 15.33018 0.070645 0.407936 -0.882377
2004-11-23 06:56:01 51°13.618 2°56.06 15.332148 0.070645 0.407936 -0.848668
2004-11-23 06:56:06 51°13.618 2°56.06 15.333975 0.070541 0.407315 -0.882377
2004-11-23 06:56:11 51°13.618 2°56.06 15.334912 0.070645 0.407929 -0.882377
2004-11-23 06:56:16 51°13.618 2°56.06 15.334912 0.070645 0.407929 -0.882377
2004-11-23 06:56:21 51°13.618 2°56.06 15.335287 0.070645 0.407936 -0.882377
2004-11-23 06:56:26 51°13.618 2°56.06 15.34044 0.070541 0.407315 -0.882377
2004-11-23 06:56:30 51°13.618 2°56.06 15.339129 0.070645 0.407936 -0.882377
2004-11-23 06:56:36 51°13.618 2°56.06 15.339222 0.070645 0.407936 -0.848668
2004-11-23 06:56:40 51°13.618 2°56.06 15.33955 0.070645 0.407929 -0.882377
2004-11-23 06:56:46 51°13.618 2°56.06 15.33955 0.070645 0.407929 -0.882377
2004-11-23 06:56:50 51°13.618 2°56.06 15.340206 0.070645 0.407929 -0.882377
2004-11-23 06:56:56 51°13.618 2°56.06 15.341471 0.070645 0.407929 -0.848668
2004-11-23 06:57:01 51°13.618 2°56.06 15.343392 0.070645 0.407929 -0.882377
2004-11-23 06:57:06 51°13.618 2°56.06 15.35988 0.070645 0.407929 -0.882377
2004-11-23 06:57:11 51°13.618 2°56.06 15.349763 0.070645 0.407929 -0.882377
2004-11-23 06:57:16 51°13.618 2°56.06 15.351308 0.070645 0.407929 -0.882377
2004-11-23 06:57:20 51°13.618 2°56.06 15.351308 0.070645 0.407929 -0.882377
2004-11-23 06:57:26 51°13.618 2°56.06 15.352058 0.070645 0.407929 -0.882377
2004-11-23 06:57:31 51°13.618 2°56.06 15.353885 0.070645 0.407922 -0.882377
2004-11-23 06:57:36 51°13.618 2°56.06 15.362175 0.070645 0.407929 -0.916087
2004-11-23 06:57:41 51°13.618 2°56.06 15.351308 0.070645 0.407929 -0.882377
2004-11-23 06:57:46 51°13.617 2°56.06 15.351308 0.070645 0.407929 -0.882377
2004-11-23 06:57:51 51°13.617 2°56.06 15.355149 0.070645 0.407922 -0.882377
2004-11-23 06:57:56 51°13.617 2°56.06 15.356039 0.070645 0.407922 -0.882377
2004-11-23 06:58:01 51°13.617 2°56.06 15.356086 0.070645 0.407915 -0.882377
2004-11-23 06:58:06 51°13.617 2°56.06 15.35618 0.070645 0.407915 -0.882377
2004-11-23 06:58:11 51°13.617 2°56.06 15.359318 0.070645 0.407922 -0.882377
2004-11-23 06:58:16 51°13.617 2°56.06 15.357819 0.070645 0.407915 -0.882377
2004-11-23 06:58:21 51°13.617 2°56.06 15.357819 0.070645 0.407915 -0.882377
2004-11-23 06:58:26 51°13.617 2°56.06 15.357538 0.070645 0.407915 -0.882377
2004-11-23 06:58:30 51°13.617 2°56.06 15.360301 0.070645 0.407922 -0.882377
2004-11-23 06:58:36 51°13.617 2°56.06 15.363908 0.070645 0.407922 -0.882377
2004-11-23 06:58:41 51°13.617 2°56.06 15.361285 0.070645 0.407915 -0.916087
2004-11-23 06:58:46 51°13.617 2°56.06 15.361285 0.070645 0.407915 -0.916087
2004-11-23 06:58:51 51°13.618 2°56.06 15.3618 0.070645 0.407915 -0.882377
2004-11-23 06:58:56 51°13.618 2°56.06 15.367841 0.070645 0.407915 -0.916087
2004-11-23 06:59:01 51°13.618 2°56.06 15.36653 0.070645 0.407922 -0.882377
2004-11-23 06:59:06 51°13.618 2°56.06 15.368731 0.070645 0.407915 -0.882377
2004-11-23 06:59:10 51°13.618 2°56.06 15.368263 0.070645 0.407915 -0.882377
2004-11-23 06:59:16 51°13.618 2°56.06 15.366343 0.070645 0.407908 -0.916087
2004-11-23 06:59:20 51°13.618 2°56.06 15.366343 0.070645 0.407908 -0.916087
2004-11-23 06:59:26 51°13.618 2°56.06 15.366483 0.070645 0.407908 -0.848668
2004-11-23 06:59:29 51°13.618 2°56.06 15.364376 0.070645 0.407908 -0.882377
2004-11-23 06:59:36 51°13.618 2°56.06 15.370464 0.070645 0.407908 -0.882377
2004-11-23 06:59:41 51°13.618 2°56.06 15.368263 0.070645 0.407901 -0.882377
2004-11-23 06:59:46 51°13.618 2°56.06 15.368263 0.070645 0.407901 -0.882377
2004-11-23 06:59:51 51°13.618 2°56.06 15.369012 0.070645 0.407908 -0.882377
2004-11-23 06:59:56 51°13.618 2°56.06 15.368825 0.070645 0.407901 -0.916087
2004-11-23 07:00:01 51°13.618 2°56.06 15.369574 0.070645 0.407908 -0.882377
2004-11-23 07:00:05 51°13.618 2°56.06 15.367841 0.070645 0.407908 -0.882377
2004-11-23 07:00:10 51°13.618 2°56.06 15.369855 0.070645 0.407901 -0.882377
2004-11-23 07:00:16 51°13.618 2°56.06 15.369855 0.070645 0.407901 -0.882377
2004-11-23 07:00:21 51°13.619 2°56.06 15.36934 0.070645 0.407901 -0.882377
2004-11-23 07:00:25 51°13.619 2°56.06 15.371588 0.070645 0.407901 -0.882377
2004-11-23 07:00:30 51°13.619 2°56.06 15.371119 0.070645 0.407901 -0.848668
2004-11-23 07:00:36 51°13.619 2°56.06 15.37215 0.070645 0.407901 -0.848668
2004-11-23 07:00:40 51°13.619 2°56.06 15.371775 0.070645 0.407901 -0.848668
2004-11-23 07:00:45 51°13.619 2°56.06 15.371775 0.070645 0.407901 -0.848668
2004-11-23 07:00:51 51°13.619 2°56.06 15.374444 0.070645 0.407894 -0.882377
2004-11-23 07:00:56 51°13.619 2°56.06 15.375755 0.070645 0.407894 -0.848668
2004-11-23 07:01:01 51°13.619 2°56.06 15.37613 0.070645 0.407901 -0.916087
2004-11-23 07:01:06 51°13.619 2°56.06 15.376832 0.070645 0.407887 -0.882377
2004-11-23 07:01:11 51°13.619 2°56.06 15.377769 0.070645 0.407894 -0.882377
2004-11-23 07:01:16 51°13.619 2°56.06 15.377769 0.070645 0.407894 -0.882377
2004-11-23 07:01:20 51°13.619 2°56.06 15.378518 0.070645 0.407887 -0.882377
2004-11-23 07:01:26 51°13.619 2°56.06 15.388303 0.070645 0.407887 -0.916087
2004-11-23 07:01:31 51°13.619 2°56.06 15.382545 0.070645 0.407887 -0.882377
2004-11-23 07:01:36 51°13.619 2°56.06 15.383575 0.070645 0.407894 -0.882377
2004-11-23 07:01:40 51°13.619 2°56.06 15.383762 0.070645 0.407887 -0.848668
2004-11-23 07:01:46 51°13.619 2°56.06 15.383762 0.070645 0.407887 -0.848668
2004-11-23 07:01:51 51°13.619 2°56.06 15.384137 0.070645 0.407894 -0.882377
2004-11-23 07:01:56 51°13.619 2°56.06 15.383762 0.070645 0.407887 -0.882377
2004-11-23 07:02:01 51°13.619 2°56.06 15.385073 0.070645 0.407887 -0.916087
2004-11-23 07:02:06 51°13.619 2°56.06 15.385307 0.070645 0.407887 -0.916087
2004-11-23 07:02:11 51°13.619 2°56.06 15.385213 0.070645 0.407887 -0.916087
2004-11-23 07:02:16 51°13.619 2°56.06 15.385213 0.070645 0.407887 -0.916087
2004-11-23 07:02:20 51°13.619 2°56.06 15.386056 0.070645 0.407887 -0.882377
2004-11-23 07:02:26 51°13.619 2°56.06 15.384979 0.070645 0.40788 -0.882377
2004-11-23 07:02:31 51°13.619 2°56.06 15.389333 0.070645 0.40788 -0.916087
2004-11-23 07:02:36 51°13.619 2°56.06 15.390223 0.070645 0.40788 -0.882377
2004-11-23 07:02:41 51°13.619 2°56.06 15.387835 0.070645 0.40788 -0.882377
2004-11-23 07:02:45 51°13.619 2°56.06 15.387835 0.070645 0.40788 -0.882377
2004-11-23 07:02:49 51°13.62 2°56.06 15.392049 0.070645 0.40788 -0.848668
2004-11-23 07:02:56 51°13.62 2°56.059 15.392283 0.070645 0.40788 -0.882377
2004-11-23 07:03:00 51°13.62 2°56.059 15.39041 0.070645 0.407873 -0.916087
2004-11-23 07:03:06 51°13.62 2°56.059 15.391019 0.070645 0.40788 -0.882377
2004-11-23 07:03:11 51°13.62 2°56.059 15.390785 0.070645 0.407873 -0.882377
2004-11-23 07:03:16 51°13.62 2°56.059 15.390785 0.070645 0.407873 -0.882377
2004-11-23 07:03:21 51°13.62 2°56.059 15.39467 0.070645 0.407873 -0.882377
2004-11-23 07:03:24 51°13.62 2°56.059 15.394062 0.070645 0.407873 -0.848668
2004-11-23 07:03:31 51°13.62 2°56.059 15.394764 0.070645 0.407873 -0.882377
2004-11-23 07:03:36 51°13.62 2°56.059 15.396309 0.070645 0.407865 -0.848668
2004-11-23 07:03:41 51°13.62 2°56.059 15.396355 0.070645 0.40788 -0.916087
2004-11-23 07:03:45 51°13.62 2°56.059 15.396355 0.070645 0.40788 -0.916087
2004-11-23 07:03:51 51°13.62 2°56.059 15.395887 0.070645 0.407873 -0.882377
2004-11-23 07:03:56 51°13.62 2°56.059 15.3979 0.070645 0.407865 -0.882377
2004-11-23 07:04:01 51°13.62 2°56.059 15.401598 0.070645 0.407865 -0.882377
2004-11-23 07:04:05 51°13.62 2°56.059 15.399585 0.070645 0.407865 -0.916087
2004-11-23 07:04:11 51°13.62 2°56.059 15.405062 0.070645 0.407865 -0.882377
2004-11-23 07:04:16 51°13.62 2°56.059 15.405062 0.070645 0.407865 -0.882377
2004-11-23 07:04:21 51°13.62 2°56.059 15.403611 0.070645 0.407865 -0.916087
2004-11-23 07:04:26 51°13.62 2°56.059 15.404594 0.070645 0.407865 -0.882377
2004-11-23 07:04:31 51°13.62 2°56.059 15.404921 0.070645 0.407873 -0.882377
2004-11-23 07:04:36 51°13.62 2°56.06 15.404219 0.070645 0.407865 -0.882377
2004-11-23 07:04:40 51°13.62 2°56.06 15.408198 0.070645 0.407858 -0.882377
2004-11-23 07:04:46 51°13.62 2°56.06 15.408198 0.070645 0.407858 -0.882377
2004-11-23 07:04:49 51°13.62 2°56.06 15.40684 0.070645 0.407858 -0.882377
2004-11-23 07:04:56 51°13.62 2°56.06 15.407402 0.070645 0.407865 -0.882377
2004-11-23 07:05:01 51°13.62 2°56.06 15.414375 0.070645 0.407865 -0.882377
2004-11-23 07:05:06 51°13.62 2°56.06 15.415967 0.070645 0.407865 -0.882377
2004-11-23 07:05:11 51°13.62 2°56.06 15.416107 0.070645 0.407858 -0.882377
2004-11-23 07:05:16 51°13.62 2°56.06 15.416107 0.070645 0.407858 -0.882377
2004-11-23 07:05:21 51°13.62 2°56.06 15.417558 0.070645 0.407858 -0.882377
2004-11-23 07:05:26 51°13.62 2°56.06 15.41957 0.070645 0.407851 -0.882377
2004-11-23 07:05:31 51°13.62 2°56.06 15.417136 0.070645 0.407851 -0.882377
2004-11-23 07:05:36 51°13.62 2°56.06 15.413159 0.070645 0.407851 -0.882377
2004-11-23 07:05:40 51°13.619 2°56.06 15.413393 0.070645 0.407851 -0.882377
2004-11-23 07:05:46 51°13.619 2°56.06 15.413393 0.070645 0.407851 -0.882377
2004-11-23 07:05:49 51°13.619 2°56.06 15.417324 0.070645 0.407858 -0.916087
2004-11-23 07:05:56 51°13.619 2°56.06 15.419804 0.070645 0.407851 -0.848668
2004-11-23 07:06:00 51°13.619 2°56.06 15.418494 0.070645 0.407851 -0.882377
2004-11-23 07:06:05 51°13.619 2°56.06 15.416013 0.070645 0.407851 -0.882377
2004-11-23 07:06:10 51°13.619 2°56.06 15.417464 0.070645 0.407844 -0.882377
2004-11-23 07:06:16 51°13.619 2°56.06 15.417464 0.070645 0.407844 -0.882377
2004-11-23 07:06:20 51°13.619 2°56.06 15.421489 0.070645 0.407851 -0.916087
2004-11-23 07:06:26 51°13.619 2°56.06 15.423547 0.070645 0.407851 -0.882377
2004-11-23 07:06:31 51°13.619 2°56.06 15.421676 0.070645 0.407844 -0.882377
2004-11-23 07:06:36 51°13.618 2°56.06 15.418681 0.070645 0.407851 -0.882377
2004-11-23 07:06:40 51°13.618 2°56.06 15.421582 0.070645 0.407844 -0.882377
2004-11-23 07:06:46 51°13.618 2°56.06 15.421582 0.070645 0.407844 -0.882377
2004-11-23 07:06:51 51°13.618 2°56.06 15.421208 0.070645 0.407844 -0.848668
2004-11-23 07:06:56 51°13.618 2°56.06 15.421769 0.070645 0.407837 -0.882377
2004-11-23 07:07:01 51°13.618 2°56.06 15.421114 0.070645 0.407844 -0.882377
2004-11-23 07:07:06 51°13.618 2°56.06 15.424156 0.070645 0.407837 -0.882377
2004-11-23 07:07:09 51°13.618 2°56.06 15.420787 0.070645 0.407844 -0.882377
2004-11-23 07:07:16 51°13.618 2°56.06 15.420787 0.070645 0.407844 -0.882377
2004-11-23 07:07:21 51°13.618 2°56.06 15.420927 0.070645 0.407837 -0.882377
2004-11-23 07:07:25 51°13.618 2°56.06 15.429911 0.070645 0.407837 -0.882377
2004-11-23 07:07:31 51°13.618 2°56.06 15.425138 0.070645 0.407837 -0.882377
2004-11-23 07:07:36 51°13.618 2°56.06 15.427759 0.070645 0.40783 -0.882377
2004-11-23 07:07:40 51°13.618 2°56.06 15.429116 0.070645 0.407844 -0.916087
2004-11-23 07:07:46 51°13.618 2°56.06 15.429116 0.070645 0.407844 -0.916087
2004-11-23 07:07:51 51°13.618 2°56.06 15.427525 0.070645 0.407837 -0.882377
2004-11-23 07:07:56 51°13.618 2°56.06 15.427338 0.070645 0.40783 -0.882377
2004-11-23 07:08:01 51°13.618 2°56.06 15.428601 0.070645 0.40783 -0.882377
2004-11-23 07:08:06 51°13.618 2°56.06 15.427759 0.070645 0.407837 -0.916087
2004-11-23 07:08:11 51°13.618 2°56.06 15.427291 0.070645 0.407837 -0.848668
2004-11-23 07:08:16 51°13.618 2°56.06 15.430472 0.070645 0.40783 -0.882377
2004-11-23 07:08:21 51°13.618 2°56.06 15.430472 0.070645 0.40783 -0.882377
2004-11-23 07:08:26 51°13.618 2°56.06 15.428461 0.070645 0.40783 -0.882377
2004-11-23 07:08:31 51°13.618 2°56.06 15.429162 0.070645 0.40783 -0.848668
2004-11-23 07:08:36 51°13.618 2°56.06 15.430987 0.070645 0.40783 -0.916087
2004-11-23 07:08:41 51°13.618 2°56.06 15.431268 0.070645 0.40783 -0.882377
2004-11-23 07:08:46 51°13.618 2°56.06 15.431268 0.070645 0.40783 -0.882377
2004-11-23 07:08:51 51°13.618 2°56.06 15.432999 0.070645 0.40783 -0.882377
2004-11-23 07:08:56 51°13.618 2°56.06 15.435292 0.070645 0.407823 -0.916087
2004-11-23 07:09:01 51°13.618 2°56.059 15.435338 0.070645 0.407823 -0.916087
2004-11-23 07:09:05 51°13.618 2°56.059 15.435572 0.070645 0.407823 -0.882377
2004-11-23 07:09:11 51°13.619 2°56.059 15.439783 0.070645 0.407823 -0.882377
2004-11-23 07:09:16 51°13.619 2°56.059 15.439783 0.070645 0.407823 -0.882377
2004-11-23 07:09:20 51°13.619 2°56.059 15.437771 0.070645 0.407823 -0.882377
2004-11-23 07:09:26 51°13.619 2°56.059 15.436321 0.070645 0.407823 -0.882377
2004-11-23 07:09:31 51°13.619 2°56.059 15.435058 0.070645 0.407816 -0.882377
2004-11-23 07:09:36 51°13.618 2°56.059 15.43604 0.070645 0.407816 -0.882377
2004-11-23 07:09:41 51°13.618 2°56.059 15.433373 0.070645 0.407816 -0.916087
2004-11-23 07:09:46 51°13.618 2°56.059 15.433373 0.070645 0.407816 -0.916087
2004-11-23 07:09:49 51°13.618 2°56.06 15.435104 0.070645 0.407816 -0.882377
2004-11-23 07:09:56 51°13.618 2°56.06 15.439549 0.070645 0.407816 -0.882377
2004-11-23 07:10:00 51°13.618 2°56.06 15.436976 0.070645 0.407816 -0.882377
2004-11-23 07:10:06 51°13.618 2°56.06 15.438941 0.070645 0.407816 -0.848668
2004-11-23 07:10:11 51°13.618 2°56.06 15.440157 0.070645 0.407809 -0.882377
2004-11-23 07:10:16 51°13.618 2°56.06 15.440157 0.070645 0.407809 -0.882377
2004-11-23 07:10:21 51°13.618 2°56.06 15.442122 0.070645 0.407809 -0.848668
2004-11-23 07:10:26 51°13.618 2°56.06 15.443245 0.070645 0.407816 -0.882377
2004-11-23 07:10:31 51°13.618 2°56.06 15.442636 0.070645 0.407816 -0.882377
2004-11-23 07:10:36 51°13.618 2°56.06 15.440391 0.070645 0.407809 -0.848668
2004-11-23 07:10:41 51°13.618 2°56.06 15.442543 0.070645 0.407816 -0.882377
2004-11-23 07:10:46 51°13.618 2°56.06 15.442543 0.070645 0.407816 -0.882377
2004-11-23 07:10:49 51°13.618 2°56.06 15.4388 0.070645 0.407809 -0.848668
2004-11-23 07:10:56 51°13.618 2°56.06 15.439502 0.070645 0.407802 -0.916087
2004-11-23 07:11:00 51°13.618 2°56.06 15.438707 0.070645 0.407809 -0.848668
2004-11-23 07:11:06 51°13.618 2°56.06 15.44142 0.070645 0.407809 -0.882377
2004-11-23 07:11:11 51°13.618 2°56.06 15.440812 0.070645 0.407802 -0.916087
2004-11-23 07:11:16 51°13.618 2°56.06 15.440812 0.070645 0.407802 -0.916087
2004-11-23 07:11:20 51°13.618 2°56.06 15.44259 0.070645 0.407802 -0.882377
2004-11-23 07:11:26 51°13.618 2°56.06 15.443946 0.070645 0.407802 -0.882377
2004-11-23 07:11:31 51°13.618 2°56.06 15.445443 0.070645 0.407802 -0.882377
2004-11-23 07:11:36 51°13.618 2°56.06 15.447174 0.070645 0.407802 -0.882377
2004-11-23 07:11:40 51°13.618 2°56.06 15.445771 0.070645 0.407795 -0.882377
2004-11-23 07:11:46 51°13.619 2°56.06 15.446098 0.070645 0.407795 -0.882377
2004-11-23 07:11:51 51°13.619 2°56.06 15.446098 0.070645 0.407795 -0.882377
2004-11-23 07:11:56 51°13.619 2°56.06 15.445443 0.070645 0.407802 -0.882377
2004-11-23 07:12:00 51°13.619 2°56.06 15.444227 0.070645 0.407802 -0.882377
2004-11-23 07:12:06 51°13.619 2°56.06 15.446005 0.070645 0.407795 -0.916087
2004-11-23 07:12:11 51°13.619 2°56.06 15.446566 0.070645 0.407802 -0.848668
2004-11-23 07:12:16 51°13.619 2°56.06 15.446566 0.070645 0.407802 -0.848668
2004-11-23 07:12:21 51°13.619 2°56.06 15.444508 0.070645 0.407795 -0.882377
2004-11-23 07:12:26 51°13.619 2°56.06 15.444461 0.070645 0.407795 -0.882377
2004-11-23 07:12:31 51°13.619 2°56.06 15.445817 0.070645 0.407795 -0.882377
2004-11-23 07:12:36 51°13.619 2°56.06 15.449279 0.070645 0.407788 -0.882377
2004-11-23 07:12:40 51°13.619 2°56.06 15.448952 0.070645 0.407788 -0.882377
2004-11-23 07:12:46 51°13.619 2°56.06 15.448952 0.070645 0.407788 -0.882377
2004-11-23 07:12:51 51°13.619 2°56.06 15.450448 0.070645 0.407795 -0.882377
2004-11-23 07:12:56 51°13.619 2°56.06 15.450448 0.070645 0.407795 -0.848668
2004-11-23 07:13:00 51°13.619 2°56.06 15.449185 0.070645 0.407788 -0.882377
2004-11-23 07:13:06 51°13.619 2°56.06 15.450355 0.070645 0.407788 -0.882377
2004-11-23 07:13:11 51°13.619 2°56.06 15.451992 0.070645 0.407781 -0.882377
2004-11-23 07:13:16 51°13.619 2°56.06 15.44984 0.070645 0.407788 -0.882377
2004-11-23 07:13:20 51°13.619 2°56.06 15.44984 0.070645 0.407788 -0.882377
2004-11-23 07:13:25 51°13.619 2°56.06 15.447221 0.070645 0.407788 -0.882377
2004-11-23 07:13:31 51°13.619 2°56.06 15.44563 0.070645 0.407781 -0.882377
2004-11-23 07:13:36 51°13.619 2°56.06 15.447595 0.070645 0.407781 -0.848668
2004-11-23 07:13:40 51°13.619 2°56.06 15.446238 0.070645 0.407781 -0.848668
2004-11-23 07:13:46 51°13.619 2°56.06 15.446238 0.070645 0.407781 -0.848668
2004-11-23 07:13:49 51°13.619 2°56.06 15.445209 0.070645 0.407781 -0.882377
2004-11-23 07:13:56 51°13.619 2°56.06 15.446753 0.070645 0.407774 -0.882377
2004-11-23 07:14:00 51°13.619 2°56.06 15.445256 0.070645 0.407774 -0.882377
2004-11-23 07:14:06 51°13.619 2°56.06 15.447548 0.070645 0.407781 -0.848668
2004-11-23 07:14:11 51°13.62 2°56.06 15.447876 0.070645 0.407781 -0.882377
2004-11-23 07:14:16 51°13.62 2°56.06 15.447876 0.070645 0.407781 -0.882377
2004-11-23 07:14:20 51°13.62 2°56.06 15.447361 0.070645 0.407774 -0.848668
2004-11-23 07:14:26 51°13.62 2°56.06 15.44825 0.070645 0.407774 -0.882377
2004-11-23 07:14:30 51°13.62 2°56.06 15.447829 0.070645 0.407774 -0.882377
2004-11-23 07:14:36 51°13.62 2°56.06 15.448063 0.070645 0.407767 -0.882377
2004-11-23 07:14:41 51°13.62 2°56.06 15.449279 0.070645 0.407767 -0.882377
2004-11-23 07:14:46 51°13.619 2°56.06 15.449279 0.070645 0.407767 -0.882377
2004-11-23 07:14:51 51°13.619 2°56.06 15.449185 0.070645 0.407774 -0.882377
2004-11-23 07:14:56 51°13.619 2°56.059 15.448952 0.070645 0.407767 -0.882377
2004-11-23 07:15:01 51°13.619 2°56.059 15.448952 0.070645 0.407767 -0.882377
2004-11-23 07:15:06 51°13.619 2°56.059 15.448437 0.070645 0.407767 -0.882377
2004-11-23 07:15:09 51°13.619 2°56.059 15.448484 0.070645 0.407767 -0.882377
2004-11-23 07:15:16 51°13.619 2°56.059 15.448484 0.070645 0.407767 -0.882377
2004-11-23 07:15:21 51°13.619 2°56.059 15.448577 0.070645 0.40776 -0.848668
2004-11-23 07:15:26 51°13.619 2°56.059 15.44811 0.070645 0.407767 -0.882377
2004-11-23 07:15:29 51°13.619 2°56.059 15.448437 0.070645 0.40776 -0.882377
2004-11-23 07:15:36 51°13.619 2°56.059 15.451056 0.070645 0.40776 -0.882377
2004-11-23 07:15:40 51°13.619 2°56.059 15.44956 0.070645 0.407752 -0.916087
2004-11-23 07:15:45 51°13.619 2°56.059 15.44956 0.070645 0.407752 -0.916087
2004-11-23 07:15:50 51°13.619 2°56.059 15.447689 0.070645 0.40776 -0.882377
2004-11-23 07:15:56 51°13.617 2°56.059 15.44708 0.070645 0.40776 -0.882377
2004-11-23 07:16:00 51°13.616 2°56.058 15.449045 0.070645 0.407752 -0.882377
2004-11-23 07:16:05 51°13.615 2°56.058 15.447969 0.070645 0.407752 -0.882377
2004-11-23 07:16:11 51°13.615 2°56.058 15.446753 0.070645 0.407752 -0.848668
2004-11-23 07:16:16 51°13.615 2°56.059 15.446753 0.070645 0.407752 -0.848668
2004-11-23 07:16:21 51°13.615 2°56.059 15.447548 0.070645 0.407752 -0.882377
2004-11-23 07:16:25 51°13.615 2°56.059 15.445443 0.070645 0.407752 -0.916087
2004-11-23 07:16:31 51°13.616 2°56.059 15.447922 0.070645 0.407752 -0.848668
2004-11-23 07:16:36 51°13.616 2°56.059 15.448718 0.070645 0.407752 -0.916087
2004-11-23 07:16:40 51°13.616 2°56.059 15.448531 0.070645 0.407752 -0.882377
2004-11-23 07:16:46 51°13.616 2°56.059 15.448531 0.070645 0.407752 -0.882377
2004-11-23 07:16:51 51°13.616 2°56.059 15.448343 0.070645 0.407745 -0.916087
2004-11-23 07:16:56 51°13.616 2°56.059 15.448437 0.070645 0.407745 -0.882377
2004-11-23 07:17:01 51°13.616 2°56.059 15.448671 0.070645 0.407752 -0.916087
2004-11-23 07:17:06 51°13.617 2°56.059 15.447174 0.070645 0.407745 -0.882377
2004-11-23 07:17:09 51°13.617 2°56.059 15.446472 0.070645 0.407738 -0.882377
2004-11-23 07:17:16 51°13.617 2°56.059 15.446472 0.070645 0.407738 -0.882377
2004-11-23 07:17:20 51°13.617 2°56.06 15.447408 0.070645 0.407745 -0.882377
2004-11-23 07:17:26 51°13.617 2°56.06 15.449466 0.070645 0.407738 -0.882377
2004-11-23 07:17:31 51°13.617 2°56.06 15.449793 0.070645 0.407738 -0.882377
2004-11-23 07:17:36 51°13.618 2°56.059 15.44839 0.070645 0.407738 -0.916087
2004-11-23 07:17:40 51°13.618 2°56.059 15.447314 0.070645 0.407738 -0.882377
2004-11-23 07:17:45 51°13.618 2°56.059 15.447314 0.070645 0.407738 -0.882377
2004-11-23 07:17:49 51°13.618 2°56.059 15.451524 0.070645 0.407738 -0.916087
2004-11-23 07:17:56 51°13.618 2°56.059 15.449793 0.070645 0.407738 -0.882377
2004-11-23 07:18:01 51°13.618 2°56.059 15.448858 0.070645 0.407731 -0.882377
2004-11-23 07:18:06 51°13.618 2°56.059 15.448764 0.070645 0.407724 -0.882377
2004-11-23 07:18:09 51°13.619 2°56.059 15.448671 0.070645 0.407724 -0.882377
2004-11-23 07:18:16 51°13.619 2°56.059 15.448671 0.070645 0.407724 -0.882377
2004-11-23 07:18:20 51°13.619 2°56.059 15.451758 0.070645 0.407731 -0.882377
2004-11-23 07:18:26 51°13.619 2°56.059 15.452693 0.070645 0.407731 -0.848668
2004-11-23 07:18:29 51°13.619 2°56.059 15.452553 0.070645 0.407724 -0.882377
2004-11-23 07:18:36 51°13.619 2°56.06 15.449372 0.070645 0.407724 -0.882377
2004-11-23 07:18:40 51°13.619 2°56.06 15.451431 0.070645 0.407717 -0.882377
2004-11-23 07:18:46 51°13.618 2°56.06 15.451431 0.070645 0.407717 -0.882377
2004-11-23 07:18:51 51°13.618 2°56.06 15.452319 0.070645 0.407724 -0.882377
2004-11-23 07:18:56 51°13.618 2°56.06 15.450214 0.070645 0.407724 -0.882377
2004-11-23 07:19:01 51°13.618 2°56.06 15.454471 0.070645 0.407724 -0.882377
2004-11-23 07:19:06 51°13.618 2°56.06 15.457464 0.070645 0.407724 -0.882377
2004-11-23 07:19:11 51°13.618 2°56.06 15.452039 0.070645 0.407724 -0.848668
2004-11-23 07:19:16 51°13.618 2°56.06 15.45405 0.070645 0.407717 -0.882377
2004-11-23 07:19:20 51°13.618 2°56.06 15.45405 0.070645 0.407717 -0.882377
2004-11-23 07:19:26 51°13.619 2°56.06 15.457277 0.070645 0.407717 -0.882377
2004-11-23 07:19:31 51°13.619 2°56.06 15.454611 0.070645 0.407717 -0.916087
2004-11-23 07:19:36 51°13.619 2°56.06 15.456482 0.070645 0.407717 -0.882377
2004-11-23 07:19:41 51°13.619 2°56.06 15.459803 0.070645 0.407717 -0.916087
2004-11-23 07:19:45 51°13.619 2°56.06 15.459803 0.070645 0.407717 -0.916087
2004-11-23 07:19:51 51°13.619 2°56.06 15.458446 0.070645 0.407717 -0.882377
2004-11-23 07:19:56 51°13.619 2°56.06 15.459803 0.070645 0.40771 -0.882377
2004-11-23 07:20:01 51°13.619 2°56.06 15.461533 0.070645 0.407717 -0.916087
2004-11-23 07:20:06 51°13.619 2°56.06 15.459662 0.070645 0.40771 -0.882377
2004-11-23 07:20:11 51°13.619 2°56.06 15.460411 0.070645 0.40771 -0.882377
2004-11-23 07:20:16 51°13.619 2°56.06 15.462281 0.070645 0.40771 -0.882377
2004-11-23 07:20:21 51°13.619 2°56.06 15.462281 0.070645 0.40771 -0.882377
2004-11-23 07:20:25 51°13.619 2°56.06 15.458961 0.070645 0.407703 -0.882377
2004-11-23 07:20:31 51°13.619 2°56.06 15.461159 0.070645 0.40771 -0.882377
2004-11-23 07:20:36 51°13.619 2°56.06 15.462609 0.070645 0.407703 -0.916087
2004-11-23 07:20:41 51°13.619 2°56.06 15.462936 0.070645 0.407703 -0.882377
2004-11-23 07:20:46 51°13.619 2°56.06 15.462936 0.070645 0.407703 -0.882377
2004-11-23 07:20:49 51°13.619 2°56.06 15.463731 0.070645 0.40771 -0.916087
2004-11-23 07:20:56 51°13.619 2°56.06 15.463872 0.070645 0.407703 -0.916087
2004-11-23 07:21:01 51°13.619 2°56.06 15.464573 0.070645 0.407703 -0.882377
2004-11-23 07:21:06 51°13.619 2°56.06 15.464246 0.070645 0.407696 -0.882377
2004-11-23 07:21:11 51°13.619 2°56.06 15.464199 0.070645 0.407696 -0.882377
2004-11-23 07:21:16 51°13.619 2°56.06 15.464199 0.070645 0.407696 -0.882377
2004-11-23 07:21:21 51°13.619 2°56.06 15.466444 0.070645 0.407689 -0.882377
2004-11-23 07:21:25 51°13.619 2°56.06 15.465695 0.070645 0.407696 -0.916087
2004-11-23 07:21:31 51°13.619 2°56.06 15.464854 0.070645 0.407696 -0.882377
2004-11-23 07:21:36 51°13.619 2°56.06 15.465462 0.070645 0.407696 -0.882377
2004-11-23 07:21:40 51°13.619 2°56.06 15.465836 0.070645 0.407696 -0.882377
2004-11-23 07:21:46 51°13.619 2°56.06 15.465836 0.070645 0.407696 -0.882377
2004-11-23 07:21:49 51°13.619 2°56.06 15.466724 0.070645 0.407689 -0.882377
2004-11-23 07:21:56 51°13.619 2°56.06 15.463965 0.070645 0.407689 -0.882377
2004-11-23 07:22:01 51°13.618 2°56.06 15.466444 0.070645 0.407682 -0.882377
2004-11-23 07:22:04 51°13.618 2°56.06 15.467566 0.070645 0.407689 -0.882377
2004-11-23 07:22:10 51°13.618 2°56.06 15.467285 0.070645 0.407689 -0.916087
2004-11-23 07:22:16 51°13.618 2°56.06 15.467285 0.070645 0.407689 -0.916087
2004-11-23 07:22:21 51°13.618 2°56.06 15.466116 0.070645 0.407682 -0.916087
2004-11-23 07:22:26 51°13.618 2°56.06 15.46808 0.070645 0.407689 -0.882377
2004-11-23 07:22:31 51°13.618 2°56.06 15.466677 0.070645 0.407682 -0.882377
2004-11-23 07:22:36 51°13.618 2°56.06 15.467566 0.070645 0.407682 -0.916087
2004-11-23 07:22:40 51°13.618 2°56.06 15.466911 0.070645 0.407675 -0.882377
2004-11-23 07:22:45 51°13.618 2°56.06 15.466911 0.070645 0.407675 -0.882377
2004-11-23 07:22:49 51°13.618 2°56.06 15.466911 0.070645 0.407682 -0.882377
2004-11-23 07:22:56 51°13.618 2°56.06 15.469109 0.070645 0.407675 -0.916087
2004-11-23 07:23:01 51°13.618 2°56.06 15.470044 0.070645 0.407675 -0.882377
2004-11-23 07:23:06 51°13.618 2°56.06 15.469811 0.070645 0.407675 -0.882377
2004-11-23 07:23:08 51°13.618 2°56.06 15.4714 0.070645 0.407675 -0.882377
2004-11-23 07:23:16 51°13.618 2°56.06 15.4714 0.070645 0.407675 -0.882377
2004-11-23 07:23:20 51°13.618 2°56.061 15.471915 0.070645 0.407668 -0.916087
2004-11-23 07:23:24 51°13.618 2°56.061 15.470278 0.070645 0.407675 -0.882377
2004-11-23 07:23:31 51°13.618 2°56.061 15.469811 0.070645 0.407668 -0.916087
2004-11-23 07:23:36 51°13.618 2°56.06 15.469904 0.070645 0.407668 -0.848668
2004-11-23 07:23:41 51°13.618 2°56.06 15.469764 0.070645 0.407668 -0.882377
2004-11-23 07:23:45 51°13.618 2°56.06 15.4714 0.070645 0.407668 -0.916087
2004-11-23 07:23:51 51°13.617 2°56.06 15.4714 0.070645 0.407668 -0.916087
2004-11-23 07:23:56 51°13.617 2°56.06 15.471821 0.070645 0.407668 -0.882377
2004-11-23 07:24:01 51°13.617 2°56.06 15.471167 0.070645 0.407661 -0.882377
2004-11-23 07:24:05 51°13.618 2°56.06 15.469296 0.070645 0.407661 -0.848668
2004-11-23 07:24:11 51°13.618 2°56.059 15.470746 0.070645 0.407668 -0.882377
2004-11-23 07:24:16 51°13.618 2°56.059 15.470746 0.070645 0.407668 -0.882377
2004-11-23 07:24:20 51°13.618 2°56.059 15.470044 0.070645 0.407661 -0.882377
2004-11-23 07:24:24 51°13.618 2°56.06 15.470886 0.070645 0.407661 -0.882377
2004-11-23 07:24:31 51°13.618 2°56.06 15.470325 0.070645 0.407661 -0.882377
2004-11-23 07:24:36 51°13.618 2°56.06 15.470933 0.070645 0.407654 -0.916087
2004-11-23 07:24:41 51°13.618 2°56.06 15.469764 0.070645 0.407654 -0.882377
2004-11-23 07:24:45 51°13.618 2°56.06 15.469764 0.070645 0.407654 -0.882377
2004-11-23 07:24:51 51°13.618 2°56.06 15.472616 0.070645 0.407654 -0.916087
2004-11-23 07:24:56 51°13.618 2°56.06 15.469764 0.070645 0.407654 -0.882377
2004-11-23 07:25:00 51°13.618 2°56.06 15.47112 0.070645 0.407654 -0.916087
2004-11-23 07:25:05 51°13.618 2°56.061 15.470278 0.070645 0.407654 -0.882377
2004-11-23 07:25:11 51°13.618 2°56.061 15.472055 0.070645 0.407654 -0.916087
2004-11-23 07:25:16 51°13.619 2°56.061 15.472055 0.070645 0.407654 -0.916087
2004-11-23 07:25:20 51°13.619 2°56.061 15.473738 0.070645 0.407647 -0.882377
2004-11-23 07:25:26 51°13.619 2°56.061 15.473505 0.070645 0.40764 -0.882377
2004-11-23 07:25:30 51°13.619 2°56.062 15.473785 0.070645 0.407647 -0.882377
2004-11-23 07:25:36 51°13.62 2°56.062 15.471915 0.070645 0.407647 -0.916087
2004-11-23 07:25:41 51°13.62 2°56.062 15.4714 0.070645 0.40764 -0.882377
2004-11-23 07:25:46 51°13.62 2°56.063 15.4714 0.070645 0.40764 -0.882377
2004-11-23 07:25:51 51°13.62 2°56.063 15.472289 0.070645 0.40764 -0.882377
2004-11-23 07:25:56 51°13.62 2°56.063 15.472523 0.070645 0.40764 -0.882377
2004-11-23 07:26:00 51°13.62 2°56.063 15.476965 0.070645 0.40764 -0.882377
2004-11-23 07:26:06 51°13.62 2°56.063 15.477947 0.070645 0.40764 -0.882377
2004-11-23 07:26:11 51°13.621 2°56.062 15.47472 0.070645 0.407632 -0.882377
2004-11-23 07:26:16 51°13.621 2°56.062 15.47472 0.070645 0.407632 -0.882377
2004-11-23 07:26:20 51°13.622 2°56.062 15.477105 0.070645 0.407632 -0.882377
2004-11-23 07:26:24 51°13.622 2°56.062 15.477199 0.070645 0.407632 -0.848668
2004-11-23 07:26:31 51°13.622 2°56.061 15.478695 0.070645 0.407632 -0.882377
2004-11-23 07:26:36 51°13.622 2°56.061 15.479162 0.070645 0.407632 -0.848668
2004-11-23 07:26:40 51°13.622 2°56.061 15.478975 0.070645 0.407625 -0.882377
2004-11-23 07:26:45 51°13.622 2°56.061 15.478975 0.070645 0.407625 -0.882377
2004-11-23 07:26:50 51°13.622 2°56.061 15.480799 0.070645 0.407625 -0.848668
2004-11-23 07:26:56 51°13.621 2°56.061 15.480285 0.070645 0.407625 -0.916087
2004-11-23 07:27:00 51°13.621 2°56.061 15.481687 0.070645 0.407625 -0.882377
2004-11-23 07:27:06 51°13.621 2°56.061 15.480144 0.070645 0.407625 -0.882377
2004-11-23 07:27:10 51°13.621 2°56.061 15.477947 0.070645 0.407625 -0.882377
2004-11-23 07:27:16 51°13.621 2°56.061 15.477947 0.070645 0.407625 -0.882377
2004-11-23 07:27:21 51°13.621 2°56.061 15.47977 0.070645 0.407618 -0.882377
2004-11-23 07:27:26 51°13.621 2°56.061 15.478835 0.070645 0.407618 -0.882377
2004-11-23 07:27:30 51°13.621 2°56.061 15.47804 0.070645 0.407618 -0.882377
2004-11-23 07:27:36 51°13.621 2°56.061 15.47645 0.070645 0.407611 -0.882377
2004-11-23 07:27:41 51°13.621 2°56.061 15.478227 0.070645 0.407618 -0.882377
2004-11-23 07:27:45 51°13.62 2°56.061 15.478227 0.070645 0.407618 -0.882377
2004-11-23 07:27:50 51°13.62 2°56.061 15.477105 0.070645 0.407611 -0.848668
2004-11-23 07:27:56 51°13.62 2°56.061 15.477853 0.070645 0.407604 -0.882377
2004-11-23 07:28:00 51°13.62 2°56.061 15.479022 0.070645 0.407611 -0.882377
2004-11-23 07:28:06 51°13.62 2°56.061 15.478835 0.070645 0.407604 -0.882377
2004-11-23 07:28:10 51°13.62 2°56.061 15.481033 0.070645 0.407604 -0.882377
2004-11-23 07:28:16 51°13.62 2°56.061 15.481033 0.070645 0.407604 -0.882377
2004-11-23 07:28:21 51°13.62 2°56.061 15.481547 0.070645 0.407611 -0.848668
2004-11-23 07:28:26 51°13.619 2°56.061 15.484118 0.070645 0.407604 -0.882377
2004-11-23 07:28:31 51°13.619 2°56.061 15.482248 0.070645 0.407604 -0.882377
2004-11-23 07:28:36 51°13.619 2°56.061 15.483885 0.070645 0.407597 -0.882377
2004-11-23 07:28:40 51°13.619 2°56.061 15.483604 0.070645 0.407597 -0.882377
2004-11-23 07:28:46 51°13.619 2°56.061 15.483604 0.070645 0.407597 -0.882377
2004-11-23 07:28:49 51°13.619 2°56.061 15.483791 0.070645 0.407597 -0.882377
2004-11-23 07:28:56 51°13.619 2°56.061 15.482856 0.070645 0.407597 -0.882377
2004-11-23 07:29:00 51°13.619 2°56.061 15.486456 0.070645 0.407597 -0.882377
2004-11-23 07:29:06 51°13.618 2°56.061 15.483277 0.070645 0.40759 -0.848668
2004-11-23 07:29:08 51°13.618 2°56.061 15.486456 0.070645 0.40759 -0.882377
2004-11-23 07:29:16 51°13.618 2°56.061 15.484446 0.070645 0.40759 -0.882377
2004-11-23 07:29:21 51°13.618 2°56.061 15.484446 0.070645 0.40759 -0.882377
2004-11-23 07:29:25 51°13.618 2°56.061 15.488934 0.070645 0.40759 -0.916087
2004-11-23 07:29:31 51°13.618 2°56.061 15.489214 0.070645 0.407583 -0.882377
2004-11-23 07:29:36 51°13.618 2°56.061 15.490336 0.070645 0.40759 -0.882377
2004-11-23 07:29:41 51°13.617 2°56.061 15.484259 0.070645 0.40759 -0.882377
2004-11-23 07:29:46 51°13.617 2°56.061 15.484259 0.070645 0.40759 -0.882377
2004-11-23 07:29:49 51°13.617 2°56.061 15.488606 0.070645 0.40759 -0.882377
2004-11-23 07:29:56 51°13.617 2°56.061 15.485848 0.070645 0.40759 -0.882377
2004-11-23 07:30:00 51°13.617 2°56.061 15.487204 0.070645 0.407583 -0.848668
2004-11-23 07:30:06 51°13.617 2°56.061 15.48711 0.070645 0.407583 -0.882377
2004-11-23 07:30:09 51°13.617 2°56.061 15.487251 0.070645 0.407583 -0.848668
2004-11-23 07:30:16 51°13.617 2°56.061 15.487251 0.070645 0.407583 -0.848668
2004-11-23 07:30:20 51°13.617 2°56.061 15.490009 0.070645 0.407576 -0.882377
2004-11-23 07:30:38 51°13.617 2°56.061 15.494497 0.070645 0.407576 -0.848668
2004-11-23 07:30:42 51°13.617 2°56.061 15.490757 0.070645 0.407569 -0.882377
2004-11-23 07:30:46 51°13.617 2°56.061 15.492113 0.070645 0.407576 -0.882377
2004-11-23 07:30:52 51°13.617 2°56.061 15.492113 0.070645 0.407576 -0.882377
2004-11-23 07:30:57 51°13.617 2°56.061 15.49043 0.070645 0.407569 -0.882377
2004-11-23 07:31:01 51°13.617 2°56.061 15.489588 0.070645 0.407569 -0.882377
2004-11-23 07:31:36 51°13.617 2°56.06 15.493842 0.070645 0.407562 -0.848668
2004-11-23 07:31:40 51°13.617 2°56.06 15.494029 0.070645 0.407562 -0.882377
2004-11-23 07:31:46 51°13.617 2°56.06 15.495946 0.070645 0.407562 -0.882377
2004-11-23 07:31:48 51°13.617 2°56.06 15.495946 0.070645 0.407562 -0.882377
2004-11-23 07:31:56 51°13.617 2°56.06 15.496133 0.070645 0.407562 -0.882377
2004-11-23 07:32:00 51°13.618 2°56.06 15.497301 0.070645 0.407555 -0.848668
2004-11-23 07:32:06 51°13.618 2°56.061 15.496927 0.070645 0.407555 -0.848668
2004-11-23 07:32:11 51°13.618 2°56.061 15.495759 0.070645 0.407555 -0.882377
2004-11-23 07:32:16 51°13.618 2°56.061 15.499966 0.070645 0.407555 -0.882377
2004-11-23 07:32:20 51°13.618 2°56.061 15.500433 0.070645 0.407555 -0.882377
2004-11-23 07:32:25 51°13.618 2°56.061 15.500433 0.070645 0.407555 -0.882377
2004-11-23 07:32:29 51°13.618 2°56.061 15.499171 0.070645 0.407555 -0.882377
2004-11-23 07:32:36 51°13.618 2°56.061 15.500386 0.070645 0.407541 -0.848668
2004-11-23 07:32:40 51°13.619 2°56.061 15.499825 0.070645 0.407548 -0.848668
2004-11-23 07:32:44 51°13.619 2°56.061 15.501181 0.070645 0.407548 -0.882377
2004-11-23 07:32:49 51°13.619 2°56.061 15.501181 0.070645 0.407548 -0.882377
2004-11-23 07:32:56 51°13.62 2°56.061 15.499825 0.070645 0.407541 -0.916087
2004-11-23 07:33:01 51°13.62 2°56.061 15.499685 0.070645 0.407541 -0.882377
2004-11-23 07:33:06 51°13.621 2°56.061 15.498096 0.070645 0.407541 -0.882377
2004-11-23 07:33:10 51°13.621 2°56.061 15.501134 0.070645 0.407541 -0.882377
2004-11-23 07:33:15 51°13.621 2°56.061 15.501041 0.070645 0.407541 -0.882377
2004-11-23 07:33:20 51°13.621 2°56.061 15.500573 0.070645 0.407541 -0.882377
2004-11-23 07:33:25 51°13.621 2°56.061 15.500573 0.070645 0.407541 -0.882377
2004-11-23 07:33:29 51°13.621 2°56.061 15.502116 0.070645 0.407534 -0.882377
2004-11-23 07:33:36 51°13.621 2°56.061 15.500386 0.070645 0.407534 -0.916087
2004-11-23 07:33:39 51°13.621 2°56.061 15.500807 0.070645 0.407534 -0.882377
2004-11-23 07:33:46 51°13.621 2°56.061 15.501555 0.070645 0.407534 -0.916087
2004-11-23 07:33:50 51°13.621 2°56.061 15.501555 0.070645 0.407534 -0.916087
2004-11-23 07:33:56 51°13.621 2°56.061 15.503892 0.070645 0.407527 -0.848668
2004-11-23 07:34:01 51°13.621 2°56.061 15.505575 0.070645 0.407527 -0.882377
2004-11-23 07:34:06 51°13.621 2°56.061 15.505855 0.070645 0.407534 -0.882377
2004-11-23 07:34:10 51°13.621 2°56.061 15.506369 0.070645 0.407527 -0.882377
2004-11-23 07:34:16 51°13.621 2°56.06 15.506696 0.070645 0.40752 -0.882377
2004-11-23 07:34:20 51°13.62 2°56.06 15.506696 0.070645 0.40752 -0.882377
2004-11-23 07:34:26 51°13.62 2°56.06 15.505948 0.070645 0.40752 -0.882377
2004-11-23 07:34:28 51°13.62 2°56.06 15.503378 0.070645 0.407527 -0.882377
2004-11-23 07:34:36 51°13.62 2°56.06 15.507491 0.070645 0.40752 -0.848668
2004-11-23 07:34:40 51°13.619 2°56.06 15.509033 0.070645 0.40752 -0.882377
2004-11-23 07:34:46 51°13.619 2°56.06 15.508052 0.070645 0.40752 -0.882377
2004-11-23 07:34:50 51°13.619 2°56.06 15.508052 0.070645 0.40752 -0.882377
2004-11-23 07:34:56 51°13.619 2°56.06 15.515763 0.070645 0.40752 -0.882377
2004-11-23 07:35:01 51°13.619 2°56.06 15.512351 0.070645 0.40752 -0.882377
2004-11-23 07:35:05 51°13.619 2°56.06 15.511744 0.070645 0.407513 -0.916087
2004-11-23 07:35:08 51°13.619 2°56.06 15.512491 0.070645 0.40752 -0.882377
2004-11-23 07:35:16 51°13.619 2°56.06 15.512024 0.070645 0.407513 -0.916087
2004-11-23 07:35:21 51°13.62 2°56.06 15.512024 0.070645 0.407513 -0.916087
2004-11-23 07:35:24 51°13.62 2°56.06 15.515623 0.070645 0.407513 -0.882377
2004-11-23 07:35:30 51°13.62 2°56.06 15.515108 0.070645 0.407513 -0.882377
2004-11-23 07:35:36 51°13.62 2°56.06 15.515763 0.070645 0.407513 -0.882377
2004-11-23 07:35:40 51°13.62 2°56.061 15.519268 0.070645 0.407506 -0.916087
2004-11-23 07:35:46 51°13.62 2°56.061 15.517071 0.070645 0.407506 -0.882377
2004-11-23 07:35:48 51°13.62 2°56.061 15.517071 0.070645 0.407506 -0.882377
2004-11-23 07:36:02 51°13.62 2°56.06 15.518707 0.070749 0.408119 -0.882377
2004-11-23 07:36:08 51°13.62 2°56.061 15.518707 0.070749 0.408119 -0.882377
2004-11-23 07:36:11 51°13.619 2°56.061 15.520202 0.070749 0.408119 -0.882377
2004-11-23 07:36:17 51°13.619 2°56.06 15.519828 0.070645 0.407498 -0.882377
2004-11-23 07:36:22 51°13.619 2°56.06 15.519828 0.070645 0.407498 -0.848668
2004-11-23 07:36:26 51°13.619 2°56.06 15.520669 0.070645 0.407498 -0.916087
2004-11-23 07:36:36 51°13.618 2°56.06 15.522912 0.070645 0.407498 -0.848668
2004-11-23 07:36:41 51°13.618 2°56.06 15.521884 0.070645 0.407498 -0.882377
2004-11-23 07:36:44 51°13.618 2°56.06 15.525108 0.070749 0.408112 -0.882377
2004-11-23 07:36:50 51°13.618 2°56.06 15.522632 0.070645 0.407491 -0.882377
2004-11-23 07:36:53 51°13.618 2°56.06 15.522632 0.070645 0.407491 -0.882377
2004-11-23 07:37:00 51°13.618 2°56.06 15.525435 0.070749 0.408105 -0.882377
2004-11-23 07:37:04 51°13.618 2°56.06 15.525435 0.070749 0.408112 -0.882377
2004-11-23 07:37:10 51°13.619 2°56.06 15.524735 0.070645 0.407491 -0.916087
2004-11-23 07:37:15 51°13.619 2°56.06 15.525622 0.070645 0.407477 -0.882377
2004-11-23 07:37:20 51°13.619 2°56.06 15.528332 0.070645 0.407484 -0.882377
2004-11-23 07:37:26 51°13.619 2°56.06 15.528332 0.070645 0.407484 -0.882377
2004-11-23 07:37:28 51°13.619 2°56.06 15.529127 0.070645 0.407491 -0.882377
2004-11-23 07:37:36 51°13.619 2°56.06 15.529314 0.070645 0.407484 -0.882377
2004-11-23 07:37:40 51°13.619 2°56.06 15.528706 0.070749 0.408105 -0.882377
2004-11-23 07:37:46 51°13.619 2°56.06 15.531977 0.070645 0.407484 -0.882377
2004-11-23 07:37:50 51°13.618 2°56.06 15.531977 0.070645 0.407484 -0.882377
2004-11-23 07:37:56 51°13.617 2°56.06 15.530295 0.070645 0.407477 -0.882377
2004-11-23 07:38:00 51°13.617 2°56.06 15.529314 0.070645 0.407477 -0.848668
2004-11-23 07:38:15 51°13.617 2°56.06 15.530949 0.070645 0.40747 -0.916087
2004-11-23 07:38:20 51°13.617 2°56.06 15.531276 0.070645 0.407477 -0.848668
2004-11-23 07:38:23 51°13.617 2°56.06 15.532771 0.070645 0.407477 -0.882377
2004-11-23 07:38:30 51°13.617 2°56.06 15.533191 0.070645 0.40747 -0.882377
2004-11-23 07:38:34 51°13.617 2°56.059 15.534733 0.070645 0.40747 -0.882377
2004-11-23 07:38:40 51°13.617 2°56.06 15.535107 0.070645 0.40747 -0.916087
2004-11-23 07:38:43 51°13.617 2°56.06 15.534967 0.070645 0.407463 -0.916087
2004-11-23 07:38:50 51°13.617 2°56.06 15.534967 0.070645 0.407463 -0.916087
2004-11-23 07:38:53 51°13.617 2°56.06 15.533378 0.070645 0.407463 -0.882377
2004-11-23 07:39:06 51°13.617 2°56.06 15.536649 0.070749 0.408091 -0.882377
2004-11-23 07:39:12 51°13.617 2°56.06 15.537443 0.070645 0.407463 -0.882377
2004-11-23 07:39:16 51°13.617 2°56.059 15.539779 0.070749 0.408084 -0.916087
2004-11-23 07:39:22 51°13.617 2°56.059 15.540479 0.070749 0.408084 -0.882377
2004-11-23 07:39:26 51°13.617 2°56.059 15.541601 0.070645 0.407463 -0.882377
2004-11-23 07:39:32 51°13.617 2°56.059 15.541601 0.070645 0.407463 -0.882377
2004-11-23 07:39:37 51°13.616 2°56.059 15.54403 0.070749 0.408077 -0.916087
2004-11-23 07:39:42 51°13.617 2°56.059 15.543749 0.070645 0.407456 -0.916087
2004-11-23 07:39:46 51°13.617 2°56.059 15.542301 0.070749 0.408077 -0.848668
2004-11-23 07:39:52 51°13.617 2°56.059 15.539825 0.070749 0.408077 -0.916087
2004-11-23 07:39:56 51°13.617 2°56.06 15.539825 0.070749 0.408077 -0.916087
2004-11-23 07:40:02 51°13.617 2°56.06 15.538471 0.070645 0.407456 -0.882377
2004-11-23 07:40:06 51°13.618 2°56.06 15.53179 0.070645 0.407456 -0.882377
2004-11-23 07:40:12 51°13.618 2°56.06 15.522772 0.070645 0.407456 -0.882377
2004-11-23 07:40:15 51°13.618 2°56.06 15.508098 0.070749 0.40807 -0.882377
2004-11-23 07:40:20 51°13.618 2°56.06 15.523613 0.070749 0.408077 -0.882377
2004-11-23 07:40:34 51°13.617 2°56.06 15.529687 0.070645 0.407449 -0.882377
2004-11-23 07:40:40 51°13.617 2°56.06 15.533986 0.070749 0.408063 -0.882377
2004-11-23 07:40:45 51°13.617 2°56.06 15.533986 0.070749 0.408063 -0.882377
2004-11-23 07:40:50 51°13.617 2°56.06 15.534079 0.070749 0.40807 -0.882377
2004-11-23 07:40:54 51°13.617 2°56.06 15.53165 0.070749 0.408063 -0.882377
2004-11-23 07:41:00 51°13.617 2°56.06 15.531509 0.070749 0.408063 -0.848668
2004-11-23 07:41:12 51°13.617 2°56.06 15.540012 0.070645 0.407435 -0.916087
2004-11-23 07:41:20 51°13.617 2°56.06 15.540012 0.070645 0.407435 -0.916087
2004-11-23 07:41:22 51°13.617 2°56.06 15.54076 0.070749 0.408063 -0.916087
2004-11-23 07:41:34 51°13.617 2°56.06 15.543983 0.070749 0.408056 -0.848668
2004-11-23 07:41:39 51°13.617 2°56.06 15.540806 0.070645 0.407435 -0.848668
2004-11-23 07:41:45 51°13.617 2°56.061 15.540806 0.070645 0.407435 -0.848668
2004-11-23 07:41:50 51°13.617 2°56.061 15.543235 0.070645 0.407435 -0.882377
2004-11-23 07:41:54 51°13.617 2°56.061 15.536742 0.070645 0.407428 -0.882377
2004-11-23 07:42:00 51°13.617 2°56.061 15.538984 0.070749 0.408048 -0.882377
2004-11-23 07:42:05 51°13.618 2°56.061 15.543889 0.070645 0.407428 -0.848668
2004-11-23 07:42:10 51°13.618 2°56.061 15.542301 0.070645 0.407428 -0.882377
2004-11-23 07:42:14 51°13.618 2°56.061 15.542908 0.070749 0.408048 -0.882377
2004-11-23 07:42:18 51°13.618 2°56.061 15.542908 0.070749 0.408048 -0.882377
2004-11-23 07:42:24 51°13.617 2°56.061 15.543609 0.070749 0.408041 -0.882377
2004-11-23 07:42:28 51°13.617 2°56.061 15.545711 0.070749 0.408041 -0.882377
2004-11-23 07:42:32 51°13.617 2°56.061 15.545384 0.070749 0.408041 -0.916087
2004-11-23 07:42:50 51°13.617 2°56.061 15.547299 0.070749 0.408041 -0.916087
2004-11-23 07:42:54 51°13.617 2°56.061 15.546972 0.070749 0.408034 -0.882377
2004-11-23 07:43:00 51°13.617 2°56.061 15.550242 0.070749 0.408034 -0.916087
2004-11-23 07:43:05 51°13.617 2°56.061 15.552624 0.070749 0.408041 -0.848668
2004-11-23 07:43:10 51°13.617 2°56.061 15.55141 0.070749 0.408041 -0.882377
2004-11-23 07:43:16 51°13.618 2°56.061 15.552764 0.070749 0.408034 -0.882377
2004-11-23 07:43:20 51°13.618 2°56.061 15.553325 0.070749 0.408034 -0.882377
2004-11-23 07:43:26 51°13.618 2°56.061 15.553325 0.070749 0.408034 -0.882377
2004-11-23 07:43:28 51°13.618 2°56.061 15.553839 0.070749 0.408034 -0.848668
2004-11-23 07:43:36 51°13.618 2°56.061 15.552998 0.070645 0.4074 -0.882377
2004-11-23 07:43:40 51°13.618 2°56.061 15.552157 0.070749 0.408027 -0.882377
2004-11-23 07:43:46 51°13.618 2°56.061 15.55211 0.070749 0.40802 -0.882377
2004-11-23 07:43:50 51°13.618 2°56.061 15.55211 0.070749 0.40802 -0.882377
2004-11-23 07:43:56 51°13.618 2°56.061 15.556968 0.070749 0.40802 -0.882377
2004-11-23 07:44:00 51°13.618 2°56.061 15.55566 0.070749 0.40802 -0.882377
2004-11-23 07:44:06 51°13.618 2°56.061 15.559069 0.070749 0.40802 -0.916087
2004-11-23 07:44:10 51°13.618 2°56.061 15.559303 0.070749 0.40802 -0.882377
2004-11-23 07:44:16 51°13.618 2°56.061 15.558929 0.070749 0.408013 -0.882377
2004-11-23 07:44:17 51°13.618 2°56.061 15.558929 0.070749 0.408013 -0.882377
2004-11-23 07:44:28 51°13.618 2°56.061 15.561638 0.070749 0.40802 -0.916087
2004-11-23 07:44:32 51°13.617 2°56.061 15.561638 0.070749 0.40802 -0.916087
2004-11-23 07:44:36 51°13.617 2°56.061 15.562292 0.070749 0.408013 -0.882377
2004-11-23 07:44:42 51°13.617 2°56.061 15.562665 0.070749 0.408006 -0.882377
2004-11-23 07:44:48 51°13.617 2°56.061 15.564113 0.070645 0.407393 -0.882377
2004-11-23 07:44:52 51°13.617 2°56.061 15.561731 0.070749 0.408006 -0.882377
2004-11-23 07:44:58 51°13.617 2°56.061 15.562245 0.070749 0.408013 -0.882377
2004-11-23 07:45:02 51°13.617 2°56.061 15.562245 0.070749 0.408013 -0.882377
2004-11-23 07:45:08 51°13.617 2°56.061 15.567008 0.070749 0.408013 -0.882377
2004-11-23 07:45:13 51°13.617 2°56.061 15.565561 0.070749 0.408006 -0.882377
2004-11-23 07:45:18 51°13.617 2°56.061 15.561218 0.070749 0.408013 -0.882377
2004-11-23 07:45:20 51°13.617 2°56.061 15.562619 0.070749 0.408006 -0.882377
2004-11-23 07:45:31 51°13.617 2°56.061 15.562058 0.070749 0.407999 -0.882377
2004-11-23 07:45:36 51°13.617 2°56.061 15.561965 0.070749 0.407999 -0.882377
2004-11-23 07:45:40 51°13.617 2°56.061 15.562665 0.070749 0.407999 -0.916087
2004-11-23 07:45:46 51°13.618 2°56.061 15.563833 0.070749 0.407999 -0.882377
2004-11-23 07:45:50 51°13.618 2°56.061 15.563833 0.070749 0.407999 -0.882377
2004-11-23 07:45:56 51°13.618 2°56.061 15.563833 0.070749 0.407992 -0.916087
2004-11-23 07:46:01 51°13.618 2°56.061 15.565467 0.070749 0.407999 -0.882377
2004-11-23 07:46:04 51°13.618 2°56.061 15.565794 0.070749 0.407999 -0.916087
2004-11-23 07:46:08 51°13.618 2°56.061 15.566261 0.070749 0.407992 -0.882377
2004-11-23 07:46:24 51°13.618 2°56.061 15.566028 0.070749 0.407992 -0.882377
2004-11-23 07:46:32 51°13.618 2°56.061 15.567756 0.070749 0.407992 -0.882377
2004-11-23 07:46:37 51°13.618 2°56.061 15.568643 0.070749 0.407985 -0.882377
2004-11-23 07:46:42 51°13.618 2°56.061 15.570931 0.070749 0.407985 -0.882377
2004-11-23 07:46:44 51°13.618 2°56.061 15.572052 0.070749 0.407985 -0.916087
2004-11-23 07:46:52 51°13.618 2°56.061 15.571398 0.070749 0.407985 -0.916087
2004-11-23 07:46:56 51°13.618 2°56.061 15.574013 0.070749 0.407985 -0.882377
2004-11-23 07:47:08 51°13.618 2°56.061 15.574059 0.070749 0.407985 -0.848668
2004-11-23 07:47:16 51°13.618 2°56.061 15.576301 0.070749 0.407978 -0.882377
2004-11-23 07:47:21 51°13.618 2°56.061 15.577935 0.070749 0.407978 -0.916087
2004-11-23 07:47:26 51°13.618 2°56.061 15.577935 0.070749 0.407978 -0.916087
2004-11-23 07:47:30 51°13.618 2°56.061 15.577328 0.070749 0.407985 -0.916087
2004-11-23 07:47:36 51°13.618 2°56.061 15.577468 0.070749 0.407971 -0.882377
2004-11-23 07:47:40 51°13.618 2°56.061 15.576954 0.070749 0.407978 -0.882377
2004-11-23 07:47:46 51°13.618 2°56.061 15.580363 0.070749 0.407971 -0.882377
2004-11-23 07:47:50 51°13.619 2°56.061 15.580363 0.070749 0.407971 -0.882377
2004-11-23 07:47:56 51°13.619 2°56.061 15.58223 0.070749 0.407978 -0.882377
2004-11-23 07:48:00 51°13.619 2°56.061 15.582464 0.070749 0.407964 -0.916087
2004-11-23 07:48:05 51°13.619 2°56.061 15.582837 0.070749 0.407971 -0.882377
2004-11-23 07:48:26 51°13.619 2°56.06 15.584331 0.070749 0.407964 -0.882377
2004-11-23 07:48:32 51°13.619 2°56.06 15.585078 0.070749 0.407971 -0.916087
2004-11-23 07:48:36 51°13.619 2°56.06 15.586058 0.070749 0.407964 -0.916087
2004-11-23 07:48:51 51°13.619 2°56.061 15.585078 0.070749 0.407957 -0.916087
2004-11-23 07:48:56 51°13.619 2°56.061 15.586572 0.070749 0.407964 -0.882377
2004-11-23 07:49:00 51°13.619 2°56.061 15.588393 0.070749 0.40795 -0.882377
2004-11-23 07:49:05 51°13.619 2°56.061 15.587879 0.070749 0.40795 -0.882377
2004-11-23 07:49:10 51°13.619 2°56.061 15.589746 0.070749 0.40795 -0.882377
2004-11-23 07:49:16 51°13.618 2°56.061 15.591007 0.070749 0.40795 -0.848668
2004-11-23 07:49:20 51°13.618 2°56.061 15.589606 0.070749 0.40795 -0.882377
2004-11-23 07:49:25 51°13.618 2°56.061 15.589606 0.070749 0.40795 -0.882377
2004-11-23 07:49:46 51°13.618 2°56.061 15.592174 0.070749 0.40795 -0.916087
2004-11-23 07:49:52 51°13.618 2°56.061 15.590213 0.070749 0.407943 -0.916087
2004-11-23 07:49:54 51°13.618 2°56.061 15.590213 0.070749 0.407943 -0.916087
2004-11-23 07:50:04 51°13.618 2°56.061 15.590493 0.070749 0.407936 -0.882377
2004-11-23 07:50:08 51°13.618 2°56.061 15.590493 0.070749 0.407936 -0.882377
2004-11-23 07:50:12 51°13.618 2°56.06 15.592174 0.070749 0.407943 -0.882377
2004-11-23 07:50:18 51°13.618 2°56.06 15.59124 0.070749 0.407943 -0.916087
2004-11-23 07:50:24 51°13.618 2°56.06 15.592407 0.070749 0.407936 -0.882377
2004-11-23 07:50:28 51°13.618 2°56.061 15.593154 0.070749 0.407936 -0.882377
2004-11-23 07:50:33 51°13.618 2°56.061 15.592781 0.070749 0.407936 -0.882377
2004-11-23 07:50:36 51°13.618 2°56.061 15.592781 0.070749 0.407936 -0.882377
2004-11-23 07:50:44 51°13.618 2°56.06 15.592687 0.070749 0.407936 -0.916087
2004-11-23 07:50:49 51°13.618 2°56.06 15.593948 0.070749 0.407929 -0.916087
2004-11-23 07:50:54 51°13.618 2°56.06 15.592221 0.070749 0.407921 -0.882377
2004-11-23 07:50:58 51°13.618 2°56.06 15.594321 0.070749 0.407929 -0.882377
2004-11-23 07:51:04 51°13.618 2°56.061 15.595255 0.070749 0.407921 -0.916087
2004-11-23 07:51:08 51°13.618 2°56.061 15.597215 0.070749 0.407929 -0.916087
2004-11-23 07:51:14 51°13.618 2°56.061 15.597215 0.070749 0.407929 -0.916087
2004-11-23 07:51:18 51°13.618 2°56.061 15.598802 0.070749 0.407921 -0.916087
2004-11-23 07:51:23 51°13.618 2°56.061 15.598849 0.070749 0.407929 -0.882377
2004-11-23 07:51:28 51°13.618 2°56.06 15.598989 0.070749 0.407929 -0.882377
2004-11-23 07:51:46 51°13.618 2°56.06 15.602256 0.070749 0.407921 -0.882377
2004-11-23 07:51:52 51°13.618 2°56.06 15.606083 0.070749 0.407914 -0.916087
2004-11-23 07:51:56 51°13.618 2°56.06 15.606083 0.070749 0.407914 -0.916087
2004-11-23 07:52:00 51°13.618 2°56.06 15.61677 0.070749 0.407914 -0.882377
2004-11-23 07:52:06 51°13.617 2°56.06 15.61187 0.070749 0.407914 -0.882377
2004-11-23 07:52:10 51°13.617 2°56.06 15.607343 0.070749 0.407914 -0.882377
2004-11-23 07:52:16 51°13.617 2°56.06 15.604776 0.070749 0.407907 -0.882377
2004-11-23 07:52:20 51°13.617 2°56.06 15.60571 0.070749 0.407914 -0.882377
2004-11-23 07:52:27 51°13.617 2°56.06 15.60571 0.070749 0.407914 -0.882377
2004-11-23 07:52:32 51°13.617 2°56.06 15.605943 0.070749 0.407907 -0.882377
2004-11-23 07:52:33 51°13.617 2°56.06 15.606737 0.070749 0.407914 -0.882377
2004-11-23 07:52:40 51°13.617 2°56.06 15.60655 0.070749 0.407907 -0.882377
2004-11-23 07:52:46 51°13.617 2°56.06 15.608417 0.070749 0.407907 -0.882377
2004-11-23 07:52:51 51°13.617 2°56.06 15.60977 0.070749 0.407907 -0.882377
2004-11-23 07:52:56 51°13.617 2°56.06 15.609164 0.070749 0.407907 -0.916087
2004-11-23 07:53:02 51°13.617 2°56.06 15.609164 0.070749 0.407907 -0.916087
2004-11-23 07:53:06 51°13.617 2°56.06 15.611357 0.070749 0.4079 -0.916087
2004-11-23 07:53:12 51°13.617 2°56.06 15.612477 0.070749 0.4079 -0.848668
2004-11-23 07:53:16 51°13.617 2°56.06 15.611264 0.070749 0.4079 -0.848668
2004-11-23 07:53:22 51°13.617 2°56.06 15.613457 0.070749 0.4079 -0.882377
2004-11-23 07:53:26 51°13.617 2°56.06 15.61481 0.070749 0.407893 -0.882377
2004-11-23 07:53:32 51°13.617 2°56.06 15.61481 0.070749 0.407893 -0.882377
2004-11-23 07:53:36 51°13.617 2°56.06 15.612617 0.070749 0.407886 -0.882377
2004-11-23 07:53:42 51°13.617 2°56.06 15.613924 0.070749 0.407893 -0.916087
2004-11-23 07:53:45 51°13.617 2°56.06 15.61607 0.070749 0.407893 -0.882377
2004-11-23 07:53:49 51°13.617 2°56.06 15.617797 0.070749 0.407893 -0.882377
2004-11-23 07:53:56 51°13.617 2°56.06 15.617797 0.070749 0.407893 -0.882377
2004-11-23 07:54:02 51°13.617 2°56.06 15.619103 0.070749 0.407886 -0.882377
2004-11-23 07:54:05 51°13.616 2°56.06 15.61915 0.070749 0.407886 -0.882377
2004-11-23 07:54:12 51°13.616 2°56.06 15.620597 0.070749 0.407879 -0.848668
2004-11-23 07:54:15 51°13.616 2°56.06 15.622043 0.070749 0.407886 -0.882377
2004-11-23 07:54:22 51°13.616 2°56.06 15.622276 0.070749 0.407886 -0.882377
2004-11-23 07:54:24 51°13.616 2°56.06 15.622276 0.070749 0.407886 -0.882377
2004-11-23 07:54:32 51°13.616 2°56.06 15.622603 0.070749 0.407886 -0.882377
2004-11-23 07:54:36 51°13.616 2°56.06 15.62307 0.070749 0.407879 -0.848668
2004-11-23 07:54:42 51°13.616 2°56.06 15.624609 0.070749 0.407879 -0.882377
2004-11-23 07:54:46 51°13.616 2°56.06 15.624796 0.070749 0.407879 -0.848668
2004-11-23 07:54:51 51°13.616 2°56.06 15.624889 0.070749 0.407872 -0.916087
2004-11-23 07:54:56 51°13.616 2°56.06 15.625962 0.070749 0.407872 -0.882377
2004-11-23 07:55:01 51°13.616 2°56.06 15.625962 0.070749 0.407872 -0.882377
2004-11-23 07:55:07 51°13.616 2°56.06 15.627316 0.070749 0.407872 -0.916087
2004-11-23 07:55:26 51°13.616 2°56.06 15.628575 0.070749 0.407865 -0.882377
2004-11-23 07:55:32 51°13.616 2°56.06 15.628575 0.070749 0.407865 -0.882377
2004-11-23 07:55:36 51°13.616 2°56.06 15.628295 0.070749 0.407865 -0.848668
2004-11-23 07:55:41 51°13.616 2°56.06 15.631421 0.070749 0.407865 -0.916087
2004-11-23 07:55:44 51°13.616 2°56.06 15.632401 0.070749 0.407865 -0.882377
2004-11-23 07:55:51 51°13.616 2°56.06 15.633754 0.070749 0.407865 -0.848668
2004-11-23 07:55:56 51°13.616 2°56.06 15.63436 0.070749 0.407858 -0.916087
2004-11-23 07:56:00 51°13.616 2°56.06 15.63436 0.070749 0.407858 -0.916087
2004-11-23 07:56:06 51°13.616 2°56.06 15.635573 0.070749 0.407858 -0.916087
2004-11-23 07:56:12 51°13.617 2°56.06 15.636273 0.070749 0.407858 -0.882377
2004-11-23 07:56:16 51°13.617 2°56.06 15.636693 0.070749 0.407858 -0.848668
2004-11-23 07:56:21 51°13.617 2°56.06 15.63688 0.070749 0.407858 -0.882377
2004-11-23 07:56:24 51°13.617 2°56.06 15.637393 0.070749 0.407858 -0.882377
2004-11-23 07:56:32 51°13.617 2°56.061 15.637393 0.070749 0.407858 -0.882377
2004-11-23 07:56:34 51°13.617 2°56.061 15.639119 0.070749 0.407851 -0.882377
2004-11-23 07:56:42 51°13.617 2°56.061 15.639352 0.070749 0.407858 -0.882377
2004-11-23 07:56:46 51°13.617 2°56.061 15.640238 0.070749 0.407851 -0.916087
2004-11-23 07:56:52 51°13.617 2°56.061 15.640192 0.070749 0.407851 -0.882377
2004-11-23 07:56:56 51°13.617 2°56.061 15.64355 0.070749 0.407844 -0.916087
2004-11-23 07:57:02 51°13.617 2°56.061 15.64355 0.070749 0.407844 -0.916087
2004-11-23 07:57:06 51°13.617 2°56.061 15.643364 0.070749 0.407844 -0.882377
2004-11-23 07:57:12 51°13.618 2°56.061 15.644343 0.070749 0.407844 -0.916087
2004-11-23 07:57:17 51°13.617 2°56.061 15.645416 0.070749 0.407844 -0.882377
2004-11-23 07:57:20 51°13.617 2°56.061 15.648028 0.070749 0.407844 -0.882377
2004-11-23 07:57:26 51°13.617 2°56.06 15.648028 0.070749 0.407844 -0.882377
2004-11-23 07:57:41 51°13.617 2°56.06 15.649801 0.070749 0.40783 -0.848668
2004-11-23 07:57:50 51°13.617 2°56.06 15.651153 0.070749 0.407837 -0.882377
2004-11-23 07:57:56 51°13.617 2°56.06 15.651153 0.070749 0.407837 -0.882377
2004-11-23 07:58:00 51°13.617 2°56.06 15.650967 0.070749 0.40783 -0.882377
2004-11-23 07:58:06 51°13.617 2°56.06 15.6512 0.070749 0.40783 -0.848668
2004-11-23 07:58:10 51°13.617 2°56.06 15.652506 0.070749 0.40783 -0.882377
2004-11-23 07:58:16 51°13.617 2°56.06 15.65633 0.070749 0.40783 -0.848668
2004-11-23 07:58:20 51°13.617 2°56.06 15.657589 0.070749 0.407823 -0.882377
2004-11-23 07:58:24 51°13.617 2°56.06 15.657589 0.070749 0.407823 -0.882377
2004-11-23 07:58:30 51°13.617 2°56.06 15.658289 0.070749 0.40783 -0.882377
2004-11-23 07:58:36 51°13.617 2°56.06 15.658942 0.070749 0.40783 -0.916087
2004-11-23 07:58:40 51°13.617 2°56.06 15.659781 0.070749 0.407823 -0.916087
2004-11-23 07:58:44 51°13.617 2°56.06 15.659595 0.070749 0.407823 -0.916087
2004-11-23 07:58:49 51°13.617 2°56.06 15.659595 0.070749 0.407823 -0.916087
2004-11-23 07:58:56 51°13.617 2°56.061 15.658615 0.070749 0.407823 -0.916087
2004-11-23 07:59:00 51°13.617 2°56.061 15.660901 0.070749 0.407823 -0.882377
2004-11-23 07:59:04 51°13.618 2°56.061 15.660108 0.070749 0.407816 -0.882377
2004-11-23 07:59:10 51°13.618 2°56.061 15.659875 0.070749 0.407816 -0.882377
2004-11-23 07:59:13 51°13.618 2°56.061 15.660854 0.070749 0.407809 -0.882377
2004-11-23 07:59:20 51°13.618 2°56.061 15.660854 0.070749 0.407809 -0.882377
2004-11-23 07:59:24 51°13.618 2°56.061 15.660667 0.070749 0.407816 -0.882377
2004-11-23 07:59:29 51°13.618 2°56.061 15.665424 0.070749 0.407809 -0.882377
2004-11-23 07:59:34 51°13.618 2°56.061 15.665657 0.070749 0.407809 -0.882377
2004-11-23 07:59:40 51°13.618 2°56.061 15.664818 0.070749 0.407809 -0.882377
2004-11-23 07:59:45 51°13.618 2°56.061 15.666636 0.070749 0.407802 -0.882377
2004-11-23 07:59:50 51°13.618 2°56.061 15.666636 0.070749 0.407802 -0.882377
2004-11-23 07:59:56 51°13.618 2°56.061 15.666497 0.070749 0.407802 -0.916087
2004-11-23 08:00:00 51°13.618 2°56.061 15.668595 0.070749 0.407802 -0.882377
2004-11-23 08:00:12 51°13.618 2°56.061 15.67018 0.070749 0.407802 -0.882377
2004-11-23 08:00:20 51°13.618 2°56.061 15.670787 0.070749 0.407802 -0.882377
2004-11-23 08:00:24 51°13.618 2°56.061 15.67046 0.070749 0.407795 -0.882377
2004-11-23 08:00:28 51°13.618 2°56.061 15.671299 0.070749 0.407802 -0.916087
2004-11-23 08:00:50 51°13.618 2°56.061 15.671253 0.070749 0.407795 -0.882377
2004-11-23 08:00:56 51°13.618 2°56.061 15.671253 0.070749 0.407795 -0.882377
2004-11-23 08:01:00 51°13.618 2°56.061 15.673864 0.070749 0.407788 -0.882377
2004-11-23 08:01:06 51°13.618 2°56.061 15.674936 0.070749 0.407795 -0.882377
2004-11-23 08:01:08 51°13.618 2°56.061 15.675682 0.070749 0.40778 -0.882377
2004-11-23 08:01:30 51°13.618 2°56.061 15.676801 0.070749 0.407773 -0.882377
2004-11-23 08:01:36 51°13.618 2°56.061 15.675356 0.070749 0.40778 -0.882377
2004-11-23 08:01:38 51°13.618 2°56.061 15.678899 0.070749 0.407773 -0.916087
2004-11-23 08:01:46 51°13.618 2°56.061 15.679832 0.070749 0.40778 -0.882377
2004-11-23 08:01:50 51°13.618 2°56.061 15.680205 0.070749 0.407773 -0.882377
2004-11-23 08:01:54 51°13.618 2°56.061 15.680205 0.070749 0.407773 -0.882377
2004-11-23 08:02:00 51°13.619 2°56.061 15.680811 0.070749 0.407773 -0.882377
2004-11-23 08:02:03 51°13.619 2°56.061 15.68123 0.070749 0.407773 -0.882377
2004-11-23 08:02:22 51°13.619 2°56.06 15.681697 0.070749 0.407766 -0.848668
2004-11-23 08:02:28 51°13.619 2°56.06 15.682536 0.070749 0.407766 -0.916087
2004-11-23 08:02:32 51°13.619 2°56.06 15.682023 0.070749 0.407759 -0.882377
2004-11-23 08:02:36 51°13.619 2°56.06 15.682023 0.070749 0.407759 -0.882377
2004-11-23 08:02:42 51°13.619 2°56.06 15.682396 0.070749 0.407759 -0.882377
2004-11-23 08:02:48 51°13.618 2°56.06 15.68524 0.070749 0.407759 -0.882377
2004-11-23 08:02:52 51°13.618 2°56.06 15.683981 0.070749 0.407759 -0.916087
2004-11-23 08:02:58 51°13.618 2°56.06 15.685147 0.070749 0.407759 -0.882377
2004-11-23 08:03:02 51°13.618 2°56.06 15.685147 0.070749 0.407759 -0.882377
2004-11-23 08:03:08 51°13.618 2°56.06 15.686685 0.070749 0.407759 -0.882377
2004-11-23 08:03:10 51°13.618 2°56.06 15.685846 0.070749 0.407752 -0.882377
2004-11-23 08:03:17 51°13.618 2°56.06 15.687664 0.070749 0.407752 -0.916087
2004-11-23 08:03:22 51°13.618 2°56.06 15.688503 0.070749 0.407752 -0.882377
2004-11-23 08:03:27 51°13.618 2°56.061 15.689249 0.070749 0.407752 -0.882377
2004-11-23 08:03:30 51°13.618 2°56.061 15.690507 0.070749 0.407752 -0.882377
2004-11-23 08:03:36 51°13.619 2°56.061 15.690507 0.070749 0.407752 -0.882377
2004-11-23 08:03:42 51°13.619 2°56.061 15.690834 0.070749 0.407745 -0.882377
2004-11-23 08:03:48 51°13.619 2°56.061 15.69144 0.070749 0.407745 -0.916087
2004-11-23 08:03:51 51°13.619 2°56.061 15.693025 0.070749 0.407745 -0.882377
2004-11-23 08:03:58 51°13.619 2°56.061 15.694656 0.070749 0.407745 -0.882377
2004-11-23 08:04:02 51°13.619 2°56.061 15.695355 0.070749 0.407738 -0.882377
2004-11-23 08:04:05 51°13.619 2°56.061 15.695355 0.070749 0.407738 -0.882377
2004-11-23 08:04:12 51°13.619 2°56.061 15.694749 0.070749 0.407738 -0.916087
2004-11-23 08:04:17 51°13.619 2°56.061 15.695635 0.070749 0.407731 -0.882377
2004-11-23 08:04:21 51°13.619 2°56.061 15.696987 0.070749 0.407738 -0.916087
2004-11-23 08:04:26 51°13.619 2°56.061 15.697593 0.070749 0.407738 -0.882377
2004-11-23 08:04:33 51°13.619 2°56.061 15.697732 0.070749 0.407738 -0.916087
2004-11-23 08:04:37 51°13.619 2°56.061 15.697732 0.070749 0.407738 -0.916087
2004-11-23 08:04:41 51°13.619 2°56.061 15.697127 0.070749 0.407738 -0.882377
2004-11-23 08:04:47 51°13.619 2°56.061 15.699457 0.070749 0.407731 -0.916087
2004-11-23 08:04:53 51°13.619 2°56.061 15.698805 0.070749 0.407731 -0.882377
2004-11-23 08:04:58 51°13.619 2°56.061 15.699923 0.070749 0.407731 -0.882377
2004-11-23 08:05:23 51°13.62 2°56.06 15.704677 0.070749 0.407717 -0.882377
2004-11-23 08:05:28 51°13.62 2°56.06 15.70477 0.070749 0.407717 -0.848668
2004-11-23 08:05:33 51°13.62 2°56.06 15.70477 0.070749 0.407717 -0.848668
2004-11-23 08:05:38 51°13.62 2°56.06 15.703838 0.070749 0.40771 -0.882377
2004-11-23 08:05:43 51°13.62 2°56.06 15.704677 0.070749 0.407717 -0.848668
2004-11-23 08:05:47 51°13.62 2°56.06 15.705143 0.070749 0.407717 -0.882377
2004-11-23 08:05:53 51°13.62 2°56.06 15.705749 0.070749 0.40771 -0.848668
2004-11-23 08:05:58 51°13.62 2°56.06 15.706774 0.070749 0.40771 -0.882377
2004-11-23 08:06:03 51°13.62 2°56.06 15.707147 0.070749 0.407703 -0.882377
2004-11-23 08:06:08 51°13.62 2°56.06 15.707147 0.070749 0.407703 -0.882377
2004-11-23 08:06:13 51°13.62 2°56.06 15.709897 0.070749 0.407703 -0.882377
2004-11-23 08:06:17 51°13.62 2°56.06 15.711761 0.070749 0.407703 -0.848668
2004-11-23 08:06:23 51°13.62 2°56.06 15.710037 0.070749 0.407703 -0.882377
2004-11-23 08:06:28 51°13.62 2°56.06 15.71204 0.070749 0.407703 -0.882377
2004-11-23 08:06:34 51°13.62 2°56.06 15.71204 0.070749 0.407703 -0.882377
2004-11-23 08:06:37 51°13.62 2°56.06 15.710922 0.070749 0.407703 -0.882377
2004-11-23 08:06:43 51°13.62 2°56.06 15.71493 0.070749 0.407696 -0.882377
2004-11-23 08:06:49 51°13.62 2°56.06 15.715815 0.070749 0.407703 -0.916087
2004-11-23 08:06:53 51°13.62 2°56.06 15.715209 0.070749 0.407696 -0.882377
2004-11-23 08:06:57 51°13.62 2°56.06 15.715069 0.070749 0.407696 -0.882377
2004-11-23 08:07:03 51°13.62 2°56.06 15.715069 0.070749 0.407696 -0.882377
2004-11-23 08:07:07 51°13.62 2°56.06 15.718238 0.070749 0.407689 -0.882377
2004-11-23 08:07:13 51°13.62 2°56.06 15.716561 0.070749 0.407696 -0.882377
2004-11-23 08:07:18 51°13.62 2°56.06 15.719776 0.070749 0.407682 -0.882377
2004-11-23 08:07:21 51°13.62 2°56.06 15.720568 0.070749 0.407696 -0.882377
2004-11-23 08:07:27 51°13.62 2°56.06 15.721313 0.070749 0.407682 -0.882377
2004-11-23 08:07:55 51°13.62 2°56.061 15.720894 0.070749 0.407682 -0.916087
2004-11-23 08:08:00 51°13.62 2°56.061 15.722152 0.070749 0.407682 -0.882377
2004-11-23 08:08:05 51°13.62 2°56.061 15.727277 0.070749 0.407675 -0.882377
2004-11-23 08:08:09 51°13.62 2°56.061 15.72765 0.070749 0.407675 -0.882377
2004-11-23 08:08:14 51°13.62 2°56.061 15.727044 0.070749 0.407675 -0.882377
2004-11-23 08:08:20 51°13.62 2°56.061 15.727044 0.070749 0.407675 -0.882377
2004-11-23 08:08:25 51°13.62 2°56.061 15.728722 0.070749 0.407668 -0.916087
2004-11-23 08:08:30 51°13.62 2°56.061 15.734126 0.070749 0.407668 -0.916087
2004-11-23 08:08:35 51°13.62 2°56.061 15.732914 0.070749 0.407668 -0.882377
2004-11-23 08:08:39 51°13.619 2°56.061 15.735011 0.070749 0.407668 -0.882377
2004-11-23 08:08:45 51°13.619 2°56.061 15.735011 0.070749 0.407668 -0.882377
2004-11-23 08:08:49 51°13.619 2°56.061 15.735151 0.070749 0.407668 -0.882377
2004-11-23 08:09:07 51°13.618 2°56.061 15.854262 0.070749 0.407668 -0.882377
2004-11-23 08:09:13 51°13.619 2°56.061 15.855099 0.070749 0.407675 -0.916087
2004-11-23 08:09:17 51°13.618 2°56.061 15.819932 0.070749 0.407661 -0.882377
2004-11-23 08:09:21 51°13.619 2°56.061 15.857378 0.070749 0.407661 -0.882377
2004-11-23 08:09:59 51°13.618 2°56.061 15.816861 0.070749 0.407661 -0.916087
2004-11-23 08:10:05 51°13.618 2°56.061 15.82598 0.070749 0.407661 -0.882377
2004-11-23 08:10:09 51°13.618 2°56.061 15.815046 0.070749 0.407661 -0.882377
2004-11-23 08:10:15 51°13.618 2°56.061 15.815046 0.070749 0.407661 -0.882377
2004-11-23 08:10:19 51°13.618 2°56.061 15.807228 0.070749 0.407654 -0.882377
2004-11-23 08:10:31 51°13.618 2°56.061 15.803086 0.070749 0.407647 -0.848668
2004-11-23 08:10:35 51°13.618 2°56.061 15.808996 0.070749 0.40764 -0.916087
2004-11-23 08:10:41 51°13.618 2°56.061 15.807879 0.070749 0.407647 -0.882377
2004-11-23 08:10:47 51°13.618 2°56.061 15.807647 0.070749 0.40764 -0.882377
2004-11-23 08:10:51 51°13.618 2°56.061 15.808345 0.070749 0.407647 -0.882377
2004-11-23 08:10:57 51°13.618 2°56.061 15.808345 0.070749 0.407647 -0.882377
2004-11-23 08:11:01 51°13.618 2°56.061 15.803737 0.070749 0.40764 -0.882377
2004-11-23 08:11:06 51°13.618 2°56.061 15.803598 0.070749 0.40764 -0.848668
2004-11-23 08:11:11 51°13.618 2°56.061 15.797594 0.070749 0.40764 -0.916087
2004-11-23 08:11:16 51°13.618 2°56.061 15.831377 0.070749 0.40764 -0.882377
2004-11-23 08:11:21 51°13.618 2°56.061 15.831377 0.070749 0.40764 -0.882377
2004-11-23 08:11:24 51°13.618 2°56.061 15.809229 0.070749 0.407633 -0.882377
2004-11-23 08:11:29 51°13.618 2°56.061 15.807647 0.070749 0.407633 -0.882377
2004-11-23 08:11:33 51°13.617 2°56.062 15.117554 0.070749 0.407633 -0.882377
2004-11-23 08:11:50 51°13.617 2°56.062 15.307076 0.070749 0.407625 -0.882377
2004-11-23 08:11:56 51°13.617 2°56.062 15.307076 0.070749 0.407625 -0.882377
2004-11-23 08:12:01 51°13.617 2°56.062 15.341002 0.070749 0.407618 -0.882377
2004-11-23 08:12:05 51°13.617 2°56.062 15.36166 0.070749 0.407625 -0.882377
2004-11-23 08:12:11 51°13.617 2°56.062 15.387835 0.070749 0.407618 -0.882377
2004-11-23 08:12:14 51°13.617 2°56.062 15.411661 0.070749 0.407618 -0.882377
2004-11-23 08:12:25 51°13.617 2°56.061 15.423313 0.070749 0.407618 -0.916087
2004-11-23 08:12:29 51°13.617 2°56.061 15.423781 0.070749 0.407611 -0.882377
2004-11-23 08:12:35 51°13.617 2°56.061 15.428882 0.070749 0.407618 -0.882377
2004-11-23 08:12:39 51°13.617 2°56.061 15.430005 0.070749 0.407618 -0.882377
2004-11-23 08:12:45 51°13.617 2°56.061 15.452787 0.070749 0.407618 -0.882377
2004-11-23 08:12:49 51°13.617 2°56.061 15.452787 0.070749 0.407618 -0.882377
2004-11-23 08:12:55 51°13.617 2°56.062 15.458213 0.070749 0.407611 -0.882377
2004-11-23 08:13:01 51°13.617 2°56.061 15.448484 0.070749 0.407611 -0.848668
2004-11-23 08:13:05 51°13.617 2°56.061 15.480144 0.070749 0.407611 -0.882377
2004-11-23 08:13:10 51°13.617 2°56.061 15.452506 0.070749 0.407611 -0.882377
2004-11-23 08:13:15 51°13.617 2°56.061 15.487858 0.070749 0.407611 -0.882377
2004-11-23 08:13:21 51°13.617 2°56.061 15.487858 0.070749 0.407611 -0.882377
2004-11-23 08:13:33 51°13.617 2°56.061 15.514968 0.070749 0.407604 -0.882377
2004-11-23 08:13:38 51°13.616 2°56.061 15.514968 0.070749 0.407604 -0.882377
2004-11-23 08:13:53 51°13.617 2°56.059 15.414282 0.070749 0.407604 -0.848668
2004-11-23 08:13:57 51°13.617 2°56.057 15.373882 0.070749 0.40759 -0.916087
2004-11-23 08:14:01 51°13.618 2°56.054 15.373882 0.070749 0.40759 -0.916087
2004-11-23 08:14:07 51°13.619 2°56.05 15.445116 0.070749 0.40759 -0.882377
2004-11-23 08:14:10 51°13.619 2°56.048 15.43618 0.070749 0.407583 -0.882377
2004-11-23 08:14:17 51°13.62 2°56.042 15.43852 0.070749 0.40759 -0.916087
2004-11-23 08:14:23 51°13.622 2°56.037 15.461346 0.070749 0.407583 -0.916087
2004-11-23 08:14:26 51°13.623 2°56.034 15.456856 0.070749 0.40759 -0.882377
2004-11-23 08:14:33 51°13.625 2°56.026 15.456856 0.070749 0.40759 -0.882377
2004-11-23 08:14:37 51°13.626 2°56.022 15.469577 0.070749 0.40759 -0.848668
2004-11-23 08:14:45 51°13.628 2°56.012 15.450589 0.070853 0.40821 -0.882377
2004-11-23 08:14:51 51°13.629 2°56.005 15.450589 0.070853 0.40821 -0.882377
2004-11-23 08:14:57 51°13.63 2°56 15.50249 0.070749 0.407583 -0.916087
2004-11-23 08:15:02 51°13.631 2°55.996 15.525996 0.070749 0.407583 -0.882377
2004-11-23 08:15:06 51°13.631 2°55.994 15.561965 0.070749 0.407576 -0.882377
2004-11-23 08:15:09 51°13.631 2°55.994 15.523847 0.070749 0.407569 -0.882377
2004-11-23 08:15:17 51°13.63 2°55.994 15.560517 0.070749 0.407562 -0.882377
2004-11-23 08:15:41 51°13.626 2°56.005 15.453255 0.070853 0.408196 -0.882377
2004-11-23 08:15:49 51°13.624 2°56.01 15.477105 0.070749 0.407583 -0.916087
2004-11-23 08:15:54 51°13.623 2°56.014 15.483791 0.070749 0.40759 -0.848668
2004-11-23 08:15:58 51°13.621 2°56.017 15.482435 0.070853 0.40821 -0.882377
2004-11-23 08:16:01 51°13.62 2°56.02 15.487438 0.070749 0.407583 -0.848668
2004-11-23 08:16:09 51°13.617 2°56.027 15.487438 0.070749 0.407583 -0.848668
2004-11-23 08:16:11 51°13.616 2°56.029 15.492487 0.070853 0.408196 -0.882377
2004-11-23 08:16:17 51°13.613 2°56.035 15.483137 0.070749 0.407576 -0.882377
2004-11-23 08:16:23 51°13.609 2°56.042 15.504873 0.070853 0.408189 -0.882377
2004-11-23 08:16:27 51°13.607 2°56.046 15.496834 0.070749 0.407562 -0.848668
2004-11-23 08:16:32 51°13.604 2°56.052 15.505761 0.070749 0.407555 -0.882377
2004-11-23 08:16:39 51°13.598 2°56.061 15.505761 0.070749 0.407555 -0.882377
2004-11-23 08:16:41 51°13.597 2°56.063 15.494777 0.070853 0.408182 -0.882377
2004-11-23 08:16:47 51°13.592 2°56.071 15.472289 0.070749 0.407562 -0.916087
2004-11-23 08:16:51 51°13.589 2°56.076 15.473785 0.070749 0.407562 -0.882377
2004-11-23 08:17:03 51°13.58 2°56.091 15.487204 0.070749 0.407548 -0.882377
2004-11-23 08:17:08 51°13.577 2°56.097 15.487204 0.070749 0.407548 -0.882377
2004-11-23 08:17:13 51°13.573 2°56.103 15.503238 0.070853 0.408168 -0.882377
2004-11-23 08:17:18 51°13.569 2°56.109 15.495712 0.070853 0.408161 -0.882377
2004-11-23 08:17:21 51°13.567 2°56.112 15.524594 0.070853 0.408161 -0.882377
2004-11-23 08:17:55 51°13.545 2°56.153 15.595535 0.070853 0.408161 -0.882377
2004-11-23 08:18:00 51°13.543 2°56.16 15.623769 0.070853 0.408161 -0.882377
2004-11-23 08:18:05 51°13.541 2°56.168 15.604403 0.070853 0.408161 -0.848668
2004-11-23 08:18:09 51°13.54 2°56.175 15.600202 0.070853 0.408168 -0.882377
2004-11-23 08:18:15 51°13.539 2°56.185 15.606317 0.070853 0.408168 -0.882377
2004-11-23 08:18:20 51°13.539 2°56.193 15.606317 0.070853 0.408168 -0.882377
2004-11-23 08:18:23 51°13.539 2°56.197 15.555193 0.070853 0.408182 -0.882377
2004-11-23 08:18:29 51°13.54 2°56.205 15.505247 0.070853 0.408168 -0.916087
2004-11-23 08:18:34 51°13.54 2°56.211 15.489308 0.070749 0.407541 -0.848668
2004-11-23 08:18:40 51°13.541 2°56.215 15.556734 0.070853 0.408154 -0.882377
2004-11-23 08:18:43 51°13.541 2°56.217 15.556734 0.070853 0.408154 -0.882377
2004-11-23 08:19:14 51°13.538 2°56.214 15.550289 0.070853 0.408133 -0.916087
2004-11-23 08:19:21 51°13.536 2°56.211 15.558369 0.070853 0.408126 -0.882377
2004-11-23 08:19:25 51°13.535 2°56.21 15.56995 0.070853 0.408111 -0.882377
2004-11-23 08:19:30 51°13.534 2°56.21 15.60543 0.070853 0.408104 -0.882377
2004-11-23 08:19:34 51°13.534 2°56.21 15.5911 0.070853 0.408104 -0.916087
2004-11-23 08:19:39 51°13.534 2°56.211 15.595908 0.070749 0.407492 -0.882377
2004-11-23 08:19:46 51°13.536 2°56.214 15.595908 0.070749 0.407492 -0.882377
2004-11-23 08:19:50 51°13.537 2°56.215 15.584331 0.070853 0.408118 -0.882377
2004-11-23 08:19:56 51°13.537 2°56.216 15.525482 0.070853 0.408126 -0.882377
2004-11-23 08:19:59 51°13.537 2°56.216 15.571678 0.070749 0.407506 -0.916087
2004-11-23 08:20:05 51°13.536 2°56.215 15.531182 0.070853 0.408126 -0.882377
2004-11-23 08:20:07 51°13.535 2°56.215 15.543235 0.070853 0.408118 -0.882377
2004-11-23 08:20:29 51°13.532 2°56.214 15.623256 0.070853 0.408083 -0.882377
2004-11-23 08:20:35 51°13.535 2°56.215 15.641964 0.070853 0.408069 -0.882377
2004-11-23 08:20:39 51°13.537 2°56.216 15.594274 0.070853 0.408104 -0.882377
2004-11-23 08:20:47 51°13.541 2°56.216 15.544964 0.070853 0.408111 -0.916087
2004-11-23 08:20:52 51°13.543 2°56.216 15.572332 0.070853 0.408104 -0.882377
2004-11-23 08:20:56 51°13.543 2°56.216 15.572332 0.070853 0.408104 -0.882377
2004-11-23 08:20:58 51°13.543 2°56.217 15.561965 0.070853 0.40809 -0.882377
2004-11-23 08:21:15 51°13.539 2°56.221 15.566401 0.070853 0.408083 -0.882377